Time,TemperatureF,DewpointF,PressureIn,WindDirection,WindDirectionDegrees,WindSpeedMPH,WindSpeedGustMPH,Humidity,HourlyPrecipIn,Conditions,Clouds,dailyrainin,SoftwareType,DateUTC
2013-08-27 00:02:00,61.3,56.5,29.79,NE,45,1.6,2.7,84,0.00,,,0.00,VWS V14.01,2013-08-27 07:02:00,
2013-08-27 00:03:00,61.3,56.5,29.79,NE,45,0.0,2.7,84,0.00,,,0.00,VWS V14.01,2013-08-27 07:03:00,
2013-08-27 00:04:00,61.3,56.5,29.79,NE,45,0.0,2.7,84,0.00,,,0.00,VWS V14.01,2013-08-27 07:04:00,
2013-08-27 00:07:00,61.3,56.5,29.79,East,90,0.0,2.7,84,0.00,,,0.00,VWS V14.01,2013-08-27 07:07:00,
2013-08-27 00:08:00,61.3,56.5,29.79,East,90,0.0,2.0,84,0.00,,,0.00,VWS V14.01,2013-08-27 07:08:00,
2013-08-27 00:09:00,61.3,56.5,29.79,East,90,0.0,2.0,84,0.00,,,0.00,VWS V14.01,2013-08-27 07:09:00,
2013-08-27 00:12:00,61.3,56.8,29.79,East,90,0.0,1.6,85,0.00,,,0.00,VWS V14.01,2013-08-27 07:12:00,
2013-08-27 00:13:00,61.3,56.8,29.79,East,90,0.0,1.6,85,0.00,,,0.00,VWS V14.01,2013-08-27 07:13:00,
2013-08-27 00:14:00,61.3,56.8,29.79,East,90,0.0,1.6,85,0.00,,,0.00,VWS V14.01,2013-08-27 07:14:00,
2013-08-27 00:17:00,61.3,56.8,29.79,NE,45,0.0,1.6,85,0.00,,,0.00,VWS V14.01,2013-08-27 07:17:00,
2013-08-27 00:18:00,61.3,56.5,29.79,NE,45,0.0,0.0,84,0.00,,,0.00,VWS V14.01,2013-08-27 07:18:00,
2013-08-27 00:19:00,61.3,56.5,29.79,NE,45,0.0,0.0,84,0.00,,,0.00,VWS V14.01,2013-08-27 07:19:00,
2013-08-27 00:22:00,61.3,56.5,29.79,NE,45,0.0,0.0,84,0.00,,,0.00,VWS V14.01,2013-08-27 07:22:00,
2013-08-27 00:24:00,61.3,56.8,29.79,ENE,68,0.0,0.0,85,0.00,,,0.00,VWS V14.01,2013-08-27 07:24:00,
2013-08-27 00:27:00,61.3,56.8,29.79,SE,135,0.0,0.0,85,0.00,,,0.00,VWS V14.01,2013-08-27 07:27:00,
2013-08-27 00:29:00,61.2,56.6,29.79,SE,135,0.0,0.0,85,0.00,,,0.00,VWS V14.01,2013-08-27 07:29:00,
2013-08-27 00:32:00,61.3,56.8,29.79,ENE,68,0.0,0.0,85,0.00,,,0.00,VWS V14.01,2013-08-27 07:32:00,
2013-08-27 00:34:00,61.3,56.8,29.79,NE,45,0.0,0.0,85,0.00,,,0.00,VWS V14.01,2013-08-27 07:34:00,
2013-08-27 00:38:00,61.3,56.8,29.79,NE,45,0.0,0.0,85,0.00,,,0.00,VWS V14.01,2013-08-27 07:38:00,
2013-08-27 00:39:00,61.3,56.8,29.79,NE,45,0.0,0.0,85,0.00,,,0.00,VWS V14.01,2013-08-27 07:39:00,
2013-08-27 00:43:00,61.3,56.8,29.79,NE,45,0.0,0.0,85,0.00,,,0.00,VWS V14.01,2013-08-27 07:43:00,
2013-08-27 00:44:00,61.3,56.8,29.79,NE,45,0.0,0.0,85,0.00,,,0.00,VWS V14.01,2013-08-27 07:44:00,
2013-08-27 00:48:00,61.3,56.8,29.79,NE,45,0.0,0.0,85,0.00,,,0.00,VWS V14.01,2013-08-27 07:48:00,
2013-08-27 00:49:00,61.3,56.8,29.79,East,90,0.0,0.0,85,0.00,,,0.00,VWS V14.01,2013-08-27 07:49:00,
2013-08-27 00:53:00,61.3,56.8,29.79,East,90,0.0,2.2,85,0.00,,,0.00,VWS V14.01,2013-08-27 07:53:00,
2013-08-27 00:54:00,61.3,56.8,29.79,East,90,0.0,2.2,85,0.00,,,0.00,VWS V14.01,2013-08-27 07:54:00,
2013-08-27 00:58:00,61.3,56.8,29.79,ENE,68,2.0,2.2,85,0.00,,,0.00,VWS V14.01,2013-08-27 07:58:00,
2013-08-27 00:59:00,61.3,56.8,29.79,NE,45,0.0,2.2,85,0.00,,,0.00,VWS V14.01,2013-08-27 07:59:00,
2013-08-27 01:03:00,61.2,56.6,29.79,NW,315,2.0,2.2,85,0.00,,,0.00,VWS V14.01,2013-08-27 08:03:00,
2013-08-27 01:04:00,61.2,56.6,29.79,ENE,68,0.0,2.2,85,0.00,,,0.00,VWS V14.01,2013-08-27 08:04:00,
2013-08-27 01:08:00,61.2,56.6,29.79,NNE,22,1.3,2.2,85,0.00,,,0.00,VWS V14.01,2013-08-27 08:08:00,
2013-08-27 01:09:00,61.2,56.6,29.79,ENE,68,0.9,2.0,85,0.00,,,0.00,VWS V14.01,2013-08-27 08:09:00,
2013-08-27 01:13:00,61.2,56.6,29.79,ESE,112,2.5,2.5,85,0.00,,,0.00,VWS V14.01,2013-08-27 08:13:00,
2013-08-27 01:14:00,61.2,56.6,29.79,ENE,68,2.0,2.5,85,0.00,,,0.00,VWS V14.01,2013-08-27 08:14:00,
2013-08-27 01:18:00,61.2,57.0,29.82,East,90,0.0,2.7,86,0.00,,,0.00,VWS V14.01,2013-08-27 08:18:00,
2013-08-27 01:19:00,61.2,57.0,29.82,ENE,68,0.0,2.7,86,0.00,,,0.00,VWS V14.01,2013-08-27 08:19:00,
2013-08-27 01:20:00,61.2,57.0,29.82,ENE,68,0.0,2.7,86,0.00,,,0.00,VWS V14.01,2013-08-27 08:20:00,
2013-08-27 01:23:00,61.2,57.3,29.82,ENE,68,0.0,2.7,87,0.00,,,0.00,VWS V14.01,2013-08-27 08:23:00,
2013-08-27 01:24:00,61.2,57.3,29.82,ENE,68,0.0,2.7,87,0.00,,,0.00,VWS V14.01,2013-08-27 08:24:00,
2013-08-27 01:25:00,61.2,57.3,29.82,ENE,68,0.0,2.7,87,0.00,,,0.00,VWS V14.01,2013-08-27 08:25:00,
2013-08-27 01:28:00,61.2,57.3,29.82,NW,315,0.0,2.7,87,0.00,,,0.00,VWS V14.01,2013-08-27 08:28:00,
2013-08-27 01:29:00,61.2,57.3,29.82,NW,315,0.0,2.7,87,0.00,,,0.00,VWS V14.01,2013-08-27 08:29:00,
2013-08-27 01:30:00,61.2,57.3,29.82,NW,315,0.0,2.7,87,0.00,,,0.00,VWS V14.01,2013-08-27 08:30:00,
2013-08-27 01:33:00,61.2,57.3,29.79,NE,45,0.0,0.0,87,0.00,,,0.00,VWS V14.01,2013-08-27 08:33:00,
2013-08-27 01:34:00,61.0,57.1,29.79,NE,45,0.0,0.0,87,0.04,,,0.04,VWS V14.01,2013-08-27 08:34:00,
2013-08-27 01:35:00,61.0,57.1,29.79,NE,45,0.0,0.0,87,0.04,,,0.04,VWS V14.01,2013-08-27 08:35:00,
2013-08-27 01:38:00,61.0,57.4,29.79,NE,45,0.0,0.0,88,0.04,,,0.04,VWS V14.01,2013-08-27 08:38:00,
2013-08-27 01:39:00,61.0,57.4,29.79,NE,45,0.0,0.0,88,0.04,,,0.04,VWS V14.01,2013-08-27 08:39:00,
2013-08-27 01:40:00,61.0,57.4,29.79,NE,45,0.0,0.0,88,0.04,,,0.04,VWS V14.01,2013-08-27 08:40:00,
2013-08-27 01:44:00,61.0,57.4,29.79,East,90,0.0,0.0,88,0.04,,,0.04,VWS V14.01,2013-08-27 08:44:00,
2013-08-27 01:45:00,61.0,57.4,29.79,East,90,0.0,0.0,88,0.04,,,0.04,VWS V14.01,2013-08-27 08:45:00,
2013-08-27 01:49:00,61.0,57.4,29.79,East,90,0.0,0.0,88,0.04,,,0.04,VWS V14.01,2013-08-27 08:49:00,
2013-08-27 01:50:00,61.0,57.4,29.79,East,90,0.0,0.0,88,0.04,,,0.04,VWS V14.01,2013-08-27 08:50:00,
2013-08-27 01:54:00,61.0,57.7,29.79,East,90,0.0,0.0,89,0.04,,,0.04,VWS V14.01,2013-08-27 08:54:00,
2013-08-27 01:55:00,61.0,57.7,29.79,East,90,0.9,0.9,89,0.04,,,0.04,VWS V14.01,2013-08-27 08:55:00,
2013-08-27 01:59:00,61.0,57.7,29.79,SSE,158,0.0,0.9,89,0.04,,,0.04,VWS V14.01,2013-08-27 08:59:00,
2013-08-27 02:00:00,61.0,57.7,29.79,ESE,112,2.0,2.0,89,0.04,,,0.04,VWS V14.01,2013-08-27 09:00:00,
2013-08-27 02:04:00,61.0,57.4,29.79,East,90,0.9,2.2,88,0.04,,,0.04,VWS V14.01,2013-08-27 09:04:00,
2013-08-27 02:05:00,61.0,57.4,29.79,East,90,1.3,2.2,88,0.04,,,0.04,VWS V14.01,2013-08-27 09:05:00,
2013-08-27 02:09:00,61.0,57.7,29.79,SE,135,0.0,2.2,89,0.04,,,0.04,VWS V14.01,2013-08-27 09:09:00,
2013-08-27 02:10:00,61.0,57.7,29.79,SSW,202,0.0,2.2,89,0.04,,,0.04,VWS V14.01,2013-08-27 09:10:00,
2013-08-27 02:14:00,61.0,57.7,29.79,ENE,68,0.0,2.2,89,0.04,,,0.04,VWS V14.01,2013-08-27 09:14:00,
2013-08-27 02:15:00,61.0,57.7,29.79,ESE,112,0.0,2.2,89,0.04,,,0.04,VWS V14.01,2013-08-27 09:15:00,
2013-08-27 02:19:00,61.0,57.7,29.79,ESE,112,0.0,1.3,89,0.04,,,0.04,VWS V14.01,2013-08-27 09:19:00,
2013-08-27 02:20:00,61.0,57.7,29.79,ESE,112,0.0,1.3,89,0.04,,,0.04,VWS V14.01,2013-08-27 09:20:00,
2013-08-27 02:24:00,61.0,57.7,29.79,ESE,112,0.0,0.0,89,0.04,,,0.04,VWS V14.01,2013-08-27 09:24:00,
2013-08-27 02:25:00,61.0,57.7,29.79,ESE,112,0.0,0.0,89,0.04,,,0.04,VWS V14.01,2013-08-27 09:25:00,
2013-08-27 02:29:00,61.0,57.7,29.79,ESE,112,0.0,0.0,89,0.04,,,0.04,VWS V14.01,2013-08-27 09:29:00,
2013-08-27 02:30:00,61.0,57.7,29.79,ESE,112,0.0,0.0,89,0.04,,,0.04,VWS V14.01,2013-08-27 09:30:00,
2013-08-27 02:34:00,61.0,57.7,29.79,ENE,68,0.0,0.0,89,0.00,,,0.04,VWS V14.01,2013-08-27 09:34:00,
2013-08-27 02:35:00,61.0,57.7,29.79,NE,45,0.0,0.0,89,0.00,,,0.04,VWS V14.01,2013-08-27 09:35:00,
2013-08-27 02:39:00,61.0,57.7,29.79,ENE,68,0.0,0.0,89,0.00,,,0.04,VWS V14.01,2013-08-27 09:39:00,
2013-08-27 02:40:00,61.0,57.7,29.79,ENE,68,0.0,0.0,89,0.00,,,0.04,VWS V14.01,2013-08-27 09:40:00,
2013-08-27 02:41:00,61.0,57.7,29.79,ENE,68,0.0,0.0,89,0.00,,,0.04,VWS V14.01,2013-08-27 09:41:00,
2013-08-27 02:44:00,61.0,57.7,29.79,ENE,68,0.0,0.0,89,0.00,,,0.04,VWS V14.01,2013-08-27 09:44:00,
2013-08-27 02:45:00,61.0,57.7,29.79,East,90,0.0,0.0,89,0.00,,,0.04,VWS V14.01,2013-08-27 09:45:00,
2013-08-27 02:46:00,61.0,57.7,29.79,East,90,0.0,0.0,89,0.00,,,0.04,VWS V14.01,2013-08-27 09:46:00,
2013-08-27 02:49:00,61.0,57.7,29.79,East,90,0.0,0.0,89,0.00,,,0.04,VWS V14.01,2013-08-27 09:49:00,
2013-08-27 02:50:00,61.2,57.9,29.79,East,90,0.0,0.0,89,0.00,,,0.04,VWS V14.01,2013-08-27 09:50:00,
2013-08-27 02:51:00,61.2,57.9,29.79,East,90,0.0,0.0,89,0.00,,,0.04,VWS V14.01,2013-08-27 09:51:00,
2013-08-27 02:54:00,61.2,57.9,29.79,East,90,0.0,0.0,89,0.00,,,0.04,VWS V14.01,2013-08-27 09:54:00,
2013-08-27 02:55:00,61.2,57.9,29.79,East,90,0.0,0.0,89,0.00,,,0.04,VWS V14.01,2013-08-27 09:55:00,
2013-08-27 02:56:00,61.2,57.9,29.79,East,90,0.0,0.0,89,0.00,,,0.04,VWS V14.01,2013-08-27 09:56:00,
2013-08-27 02:59:00,61.2,57.9,29.79,East,90,0.0,0.0,89,0.00,,,0.04,VWS V14.01,2013-08-27 09:59:00,
2013-08-27 03:00:00,61.2,57.9,29.79,East,90,0.0,0.0,89,0.00,,,0.04,VWS V14.01,2013-08-27 10:00:00,
2013-08-27 03:01:00,61.2,57.9,29.79,East,90,0.0,0.0,89,0.00,,,0.04,VWS V14.01,2013-08-27 10:01:00,
2013-08-27 03:04:00,61.2,57.9,29.79,East,90,0.0,0.0,89,0.00,,,0.04,VWS V14.01,2013-08-27 10:04:00,
2013-08-27 03:05:00,61.2,57.9,29.79,East,90,0.0,0.0,89,0.00,,,0.04,VWS V14.01,2013-08-27 10:05:00,
2013-08-27 03:06:00,61.2,57.9,29.79,East,90,0.0,0.0,89,0.00,,,0.04,VWS V14.01,2013-08-27 10:06:00,
2013-08-27 03:09:00,61.2,58.2,29.76,East,90,0.0,0.0,90,0.00,,,0.04,VWS V14.01,2013-08-27 10:09:00,
2013-08-27 03:10:00,61.2,58.2,29.76,East,90,0.0,0.0,90,0.00,,,0.04,VWS V14.01,2013-08-27 10:10:00,
2013-08-27 03:11:00,61.2,58.2,29.76,East,90,0.0,0.0,90,0.00,,,0.04,VWS V14.01,2013-08-27 10:11:00,
2013-08-27 03:15:00,61.2,57.9,29.76,East,90,1.6,1.6,89,0.00,,,0.04,VWS V14.01,2013-08-27 10:15:00,
2013-08-27 03:16:00,61.2,57.9,29.76,East,90,2.5,2.5,89,0.00,,,0.04,VWS V14.01,2013-08-27 10:16:00,
2013-08-27 03:20:00,61.0,57.7,29.79,ENE,68,0.0,2.5,89,0.00,,,0.04,VWS V14.01,2013-08-27 10:20:00,
2013-08-27 03:21:00,61.2,57.9,29.79,ENE,68,0.0,2.5,89,0.00,,,0.04,VWS V14.01,2013-08-27 10:21:00,
2013-08-27 03:25:00,61.2,58.2,29.79,East,90,0.0,2.5,90,0.00,,,0.04,VWS V14.01,2013-08-27 10:25:00,
2013-08-27 03:26:00,61.2,58.2,29.79,East,90,0.0,2.5,90,0.00,,,0.04,VWS V14.01,2013-08-27 10:26:00,
2013-08-27 03:30:00,61.0,58.0,29.79,NE,45,0.0,2.5,90,0.00,,,0.04,VWS V14.01,2013-08-27 10:30:00,
2013-08-27 03:31:00,61.2,58.2,29.79,ENE,68,0.0,2.5,90,0.00,,,0.04,VWS V14.01,2013-08-27 10:31:00,
2013-08-27 03:35:00,61.2,58.2,29.79,ESE,112,0.0,0.0,90,0.00,,,0.04,VWS V14.01,2013-08-27 10:35:00,
2013-08-27 03:36:00,61.2,58.2,29.79,ESE,112,0.0,0.0,90,0.00,,,0.04,VWS V14.01,2013-08-27 10:36:00,
2013-08-27 03:40:00,61.0,58.0,29.79,NE,45,1.1,1.3,90,0.00,,,0.04,VWS V14.01,2013-08-27 10:40:00,
2013-08-27 03:41:00,61.0,57.7,29.79,East,90,0.9,1.3,89,0.00,,,0.04,VWS V14.01,2013-08-27 10:41:00,
2013-08-27 03:45:00,61.0,57.7,29.79,NE,45,0.0,1.6,89,0.00,,,0.04,VWS V14.01,2013-08-27 10:45:00,
2013-08-27 03:46:00,61.0,57.7,29.79,NE,45,0.0,1.6,89,0.00,,,0.04,VWS V14.01,2013-08-27 10:46:00,
2013-08-27 03:50:00,61.0,57.7,29.79,ENE,68,0.0,1.6,89,0.00,,,0.04,VWS V14.01,2013-08-27 10:50:00,
2013-08-27 03:51:00,61.0,57.7,29.79,ENE,68,0.0,1.6,89,0.00,,,0.04,VWS V14.01,2013-08-27 10:51:00,
2013-08-27 03:52:00,61.0,58.0,29.79,ENE,68,0.0,1.6,90,0.00,,,0.04,VWS V14.01,2013-08-27 10:52:00,
2013-08-27 03:55:00,61.2,58.2,29.79,NE,45,0.0,1.6,90,0.00,,,0.04,VWS V14.01,2013-08-27 10:55:00,
2013-08-27 03:56:00,61.2,58.2,29.79,East,90,0.0,1.6,90,0.00,,,0.04,VWS V14.01,2013-08-27 10:56:00,
2013-08-27 03:57:00,61.2,58.2,29.79,East,90,0.0,1.6,90,0.00,,,0.04,VWS V14.01,2013-08-27 10:57:00,
2013-08-27 04:00:00,61.0,58.0,29.79,NE,45,0.0,0.0,90,0.00,,,0.04,VWS V14.01,2013-08-27 11:00:00,
2013-08-27 04:01:00,61.2,58.2,29.79,NE,45,0.0,0.0,90,0.00,,,0.04,VWS V14.01,2013-08-27 11:01:00,
2013-08-27 04:02:00,61.2,58.2,29.79,NE,45,0.0,0.0,90,0.00,,,0.04,VWS V14.01,2013-08-27 11:02:00,
2013-08-27 04:05:00,61.2,58.2,29.79,ESE,112,0.0,0.0,90,0.00,,,0.04,VWS V14.01,2013-08-27 11:05:00,
2013-08-27 04:06:00,61.2,58.2,29.79,ESE,112,0.0,0.0,90,0.00,,,0.04,VWS V14.01,2013-08-27 11:06:00,
2013-08-27 04:07:00,61.2,58.2,29.79,ESE,112,0.0,0.0,90,0.00,,,0.04,VWS V14.01,2013-08-27 11:07:00,
2013-08-27 04:10:00,61.2,58.2,29.79,East,90,0.0,0.0,90,0.00,,,0.04,VWS V14.01,2013-08-27 11:10:00,
2013-08-27 04:11:00,61.2,58.2,29.79,East,90,0.0,0.0,90,0.00,,,0.04,VWS V14.01,2013-08-27 11:11:00,
2013-08-27 04:12:00,61.2,58.2,29.79,East,90,0.0,0.0,90,0.00,,,0.04,VWS V14.01,2013-08-27 11:12:00,
2013-08-27 04:16:00,61.2,58.2,29.79,ENE,68,0.0,0.0,90,0.00,,,0.04,VWS V14.01,2013-08-27 11:16:00,
2013-08-27 04:17:00,61.0,58.0,29.79,ENE,68,0.0,0.0,90,0.00,,,0.04,VWS V14.01,2013-08-27 11:17:00,
2013-08-27 04:21:00,61.0,58.0,29.79,ENE,68,0.0,0.0,90,0.00,,,0.04,VWS V14.01,2013-08-27 11:21:00,
2013-08-27 04:22:00,61.0,58.0,29.79,ENE,68,0.0,0.0,90,0.00,,,0.04,VWS V14.01,2013-08-27 11:22:00,
2013-08-27 04:26:00,61.0,58.0,29.79,ENE,68,0.0,0.0,90,0.00,,,0.04,VWS V14.01,2013-08-27 11:26:00,
2013-08-27 04:27:00,61.0,58.0,29.79,ENE,68,0.0,0.0,90,0.00,,,0.04,VWS V14.01,2013-08-27 11:27:00,
2013-08-27 04:31:00,61.0,58.0,29.79,ENE,68,0.0,0.0,90,0.00,,,0.04,VWS V14.01,2013-08-27 11:31:00,
2013-08-27 04:32:00,61.0,58.0,29.79,ENE,68,0.0,0.0,90,0.00,,,0.04,VWS V14.01,2013-08-27 11:32:00,
2013-08-27 04:36:00,61.0,58.0,29.79,ENE,68,0.0,0.0,90,0.00,,,0.04,VWS V14.01,2013-08-27 11:36:00,
2013-08-27 04:37:00,61.0,58.0,29.79,ENE,68,0.0,0.0,90,0.00,,,0.04,VWS V14.01,2013-08-27 11:37:00,
2013-08-27 04:41:00,61.0,58.0,29.79,ENE,68,0.0,0.0,90,0.00,,,0.04,VWS V14.01,2013-08-27 11:41:00,
2013-08-27 04:42:00,61.0,58.0,29.79,ENE,68,0.0,0.0,90,0.00,,,0.04,VWS V14.01,2013-08-27 11:42:00,
2013-08-27 04:46:00,61.0,58.0,29.79,ENE,68,0.0,0.0,90,0.00,,,0.04,VWS V14.01,2013-08-27 11:46:00,
2013-08-27 04:47:00,61.0,58.0,29.79,ENE,68,0.0,0.0,90,0.00,,,0.04,VWS V14.01,2013-08-27 11:47:00,
2013-08-27 04:51:00,61.0,58.0,29.79,East,90,0.0,0.0,90,0.00,,,0.04,VWS V14.01,2013-08-27 11:51:00,
2013-08-27 04:52:00,61.0,58.0,29.79,East,90,0.0,0.0,90,0.00,,,0.04,VWS V14.01,2013-08-27 11:52:00,
2013-08-27 04:56:00,61.0,58.0,29.79,East,90,0.0,0.0,90,0.00,,,0.04,VWS V14.01,2013-08-27 11:56:00,
2013-08-27 04:57:00,61.0,58.0,29.79,East,90,0.0,0.0,90,0.00,,,0.04,VWS V14.01,2013-08-27 11:57:00,
2013-08-27 04:58:00,61.0,58.0,29.79,East,90,0.0,0.0,90,0.00,,,0.04,VWS V14.01,2013-08-27 11:58:00,
2013-08-27 05:01:00,61.0,58.0,29.79,East,90,0.0,0.0,90,0.00,,,0.04,VWS V14.01,2013-08-27 12:01:00,
2013-08-27 05:02:00,61.0,58.0,29.79,East,90,0.0,0.0,90,0.00,,,0.04,VWS V14.01,2013-08-27 12:02:00,
2013-08-27 05:03:00,61.0,58.0,29.79,East,90,0.0,0.0,90,0.00,,,0.04,VWS V14.01,2013-08-27 12:03:00,
2013-08-27 05:06:00,61.0,58.0,29.79,East,90,0.0,0.0,90,0.00,,,0.04,VWS V14.01,2013-08-27 12:06:00,
2013-08-27 05:07:00,61.0,58.0,29.79,East,90,0.0,0.0,90,0.00,,,0.04,VWS V14.01,2013-08-27 12:07:00,
2013-08-27 05:08:00,61.0,58.0,29.79,East,90,0.0,0.0,90,0.00,,,0.04,VWS V14.01,2013-08-27 12:08:00,
2013-08-27 05:11:00,61.0,58.0,29.79,East,90,0.0,0.0,90,0.00,,,0.04,VWS V14.01,2013-08-27 12:11:00,
2013-08-27 05:12:00,61.0,58.0,29.79,East,90,0.0,0.0,90,0.00,,,0.04,VWS V14.01,2013-08-27 12:12:00,
2013-08-27 05:13:00,61.0,58.0,29.79,East,90,0.0,0.0,90,0.00,,,0.04,VWS V14.01,2013-08-27 12:13:00,
2013-08-27 05:16:00,61.0,58.0,29.79,East,90,0.0,0.0,90,0.00,,,0.04,VWS V14.01,2013-08-27 12:16:00,
2013-08-27 05:17:00,61.0,58.0,29.79,East,90,0.0,0.0,90,0.00,,,0.04,VWS V14.01,2013-08-27 12:17:00,
2013-08-27 05:18:00,61.0,58.0,29.79,East,90,0.0,0.0,90,0.00,,,0.04,VWS V14.01,2013-08-27 12:18:00,
2013-08-27 05:21:00,61.0,58.0,29.79,East,90,0.0,0.0,90,0.00,,,0.04,VWS V14.01,2013-08-27 12:21:00,
2013-08-27 05:22:00,61.0,58.0,29.79,East,90,0.0,0.0,90,0.00,,,0.04,VWS V14.01,2013-08-27 12:22:00,
2013-08-27 05:23:00,61.0,58.0,29.79,East,90,0.0,0.0,90,0.00,,,0.04,VWS V14.01,2013-08-27 12:23:00,
2013-08-27 05:26:00,61.0,58.0,29.79,East,90,0.0,0.0,90,0.00,,,0.04,VWS V14.01,2013-08-27 12:26:00,
2013-08-27 05:27:00,61.0,58.0,29.79,East,90,0.0,0.0,90,0.00,,,0.04,VWS V14.01,2013-08-27 12:27:00,
2013-08-27 05:28:00,61.0,58.0,29.79,East,90,0.0,0.0,90,0.00,,,0.04,VWS V14.01,2013-08-27 12:28:00,
2013-08-27 05:31:00,61.0,58.0,29.79,East,90,0.0,0.0,90,0.00,,,0.04,VWS V14.01,2013-08-27 12:31:00,
2013-08-27 05:32:00,61.0,58.0,29.79,SE,135,0.0,0.0,90,0.00,,,0.04,VWS V14.01,2013-08-27 12:32:00,
2013-08-27 05:33:00,61.0,58.0,29.79,SE,135,0.0,0.0,90,0.00,,,0.04,VWS V14.01,2013-08-27 12:33:00,
2013-08-27 05:36:00,61.0,58.0,29.79,ESE,112,0.0,0.0,90,0.00,,,0.04,VWS V14.01,2013-08-27 12:36:00,
2013-08-27 05:37:00,61.0,58.0,29.79,ESE,112,0.0,0.0,90,0.00,,,0.04,VWS V14.01,2013-08-27 12:37:00,
2013-08-27 05:38:00,61.0,58.0,29.79,ESE,112,0.0,0.0,90,0.00,,,0.04,VWS V14.01,2013-08-27 12:38:00,
2013-08-27 05:42:00,61.0,58.3,29.79,ESE,112,0.0,0.0,91,0.00,,,0.04,VWS V14.01,2013-08-27 12:42:00,
2013-08-27 05:43:00,61.0,58.3,29.79,ESE,112,0.0,0.0,91,0.00,,,0.04,VWS V14.01,2013-08-27 12:43:00,
2013-08-27 05:47:00,61.2,58.2,29.76,East,90,0.0,0.0,90,0.00,,,0.04,VWS V14.01,2013-08-27 12:47:00,
2013-08-27 05:48:00,61.2,58.2,29.76,NE,45,0.0,0.0,90,0.00,,,0.04,VWS V14.01,2013-08-27 12:48:00,
2013-08-27 05:52:00,61.3,58.4,29.76,North,0,0.0,0.0,90,0.00,,,0.04,VWS V14.01,2013-08-27 12:52:00,
2013-08-27 05:53:00,61.3,58.4,29.76,SSE,158,0.0,0.0,90,0.00,,,0.04,VWS V14.01,2013-08-27 12:53:00,
2013-08-27 05:57:00,61.3,58.4,29.76,East,90,0.0,0.0,90,0.00,,,0.04,VWS V14.01,2013-08-27 12:57:00,
2013-08-27 05:58:00,61.3,58.4,29.76,NE,45,2.0,2.0,90,0.00,,,0.04,VWS V14.01,2013-08-27 12:58:00,
2013-08-27 06:02:00,61.3,58.4,29.76,East,90,0.0,2.0,90,0.00,,,0.04,VWS V14.01,2013-08-27 13:02:00,
2013-08-27 06:03:00,61.3,58.4,29.76,East,90,0.0,2.0,90,0.00,,,0.04,VWS V14.01,2013-08-27 13:03:00,
2013-08-27 06:07:00,61.3,58.4,29.76,NE,45,0.0,2.0,90,0.00,,,0.04,VWS V14.01,2013-08-27 13:07:00,
2013-08-27 06:08:00,61.3,58.4,29.76,NE,45,0.0,2.0,90,0.00,,,0.04,VWS V14.01,2013-08-27 13:08:00,
2013-08-27 06:12:00,61.5,58.6,29.76,NE,45,0.0,2.0,90,0.00,,,0.04,VWS V14.01,2013-08-27 13:12:00,
2013-08-27 06:13:00,61.5,58.6,29.76,ENE,68,0.0,2.0,90,0.00,,,0.04,VWS V14.01,2013-08-27 13:13:00,
2013-08-27 06:17:00,61.3,58.4,29.79,ENE,68,1.3,1.3,90,0.00,,,0.04,VWS V14.01,2013-08-27 13:17:00,
2013-08-27 06:18:00,61.3,58.4,29.79,ENE,68,0.0,1.3,90,0.00,,,0.04,VWS V14.01,2013-08-27 13:18:00,
2013-08-27 06:22:00,61.3,58.4,29.79,WNW,292,0.0,1.3,90,0.00,,,0.04,VWS V14.01,2013-08-27 13:22:00,
2013-08-27 06:23:00,61.3,58.4,29.79,WNW,292,0.0,1.3,90,0.00,,,0.04,VWS V14.01,2013-08-27 13:23:00,
2013-08-27 06:27:00,61.3,58.1,29.79,East,90,0.0,1.3,89,0.00,,,0.04,VWS V14.01,2013-08-27 13:27:00,
2013-08-27 06:28:00,61.3,58.1,29.79,SW,225,0.0,1.3,89,0.00,,,0.04,VWS V14.01,2013-08-27 13:28:00,
2013-08-27 06:32:00,61.3,58.4,29.79,WSW,248,0.0,1.3,90,0.00,,,0.04,VWS V14.01,2013-08-27 13:32:00,
2013-08-27 06:33:00,61.3,58.4,29.79,WSW,248,0.0,1.3,90,0.00,,,0.04,VWS V14.01,2013-08-27 13:33:00,
2013-08-27 06:37:00,61.3,58.4,29.79,WSW,248,0.0,1.3,90,0.00,,,0.04,VWS V14.01,2013-08-27 13:37:00,
2013-08-27 06:38:00,61.3,58.4,29.79,WSW,248,0.0,1.3,90,0.00,,,0.04,VWS V14.01,2013-08-27 13:38:00,
2013-08-27 06:42:00,61.3,58.4,29.79,East,90,0.0,0.0,90,0.00,,,0.04,VWS V14.01,2013-08-27 13:42:00,
2013-08-27 06:43:00,61.3,58.4,29.79,NE,45,0.0,0.0,90,0.00,,,0.04,VWS V14.01,2013-08-27 13:43:00,
2013-08-27 06:47:00,61.3,58.4,29.79,NE,45,0.0,0.0,90,0.00,,,0.04,VWS V14.01,2013-08-27 13:47:00,
2013-08-27 06:48:00,61.3,58.4,29.79,NE,45,0.0,0.0,90,0.00,,,0.04,VWS V14.01,2013-08-27 13:48:00,
2013-08-27 06:52:00,61.3,58.4,29.79,NE,45,0.0,0.0,90,0.00,,,0.04,VWS V14.01,2013-08-27 13:52:00,
2013-08-27 06:53:00,61.3,58.4,29.79,NE,45,0.0,0.0,90,0.00,,,0.04,VWS V14.01,2013-08-27 13:53:00,
2013-08-27 06:54:00,61.3,58.4,29.79,NE,45,0.0,0.0,90,0.00,,,0.04,VWS V14.01,2013-08-27 13:54:00,
2013-08-27 06:57:00,61.3,58.4,29.79,ENE,68,0.0,0.0,90,0.00,,,0.04,VWS V14.01,2013-08-27 13:57:00,
2013-08-27 06:58:00,61.3,58.4,29.79,East,90,0.0,0.0,90,0.00,,,0.04,VWS V14.01,2013-08-27 13:58:00,
2013-08-27 06:59:00,61.3,58.4,29.79,East,90,0.0,0.0,90,0.00,,,0.04,VWS V14.01,2013-08-27 13:59:00,
2013-08-27 07:02:00,61.3,58.4,29.79,East,90,0.0,1.1,90,0.00,,,0.04,VWS V14.01,2013-08-27 14:02:00,
2013-08-27 07:03:00,61.3,58.4,29.79,East,90,0.0,1.1,90,0.00,,,0.04,VWS V14.01,2013-08-27 14:03:00,
2013-08-27 07:04:00,61.3,58.4,29.79,ENE,68,0.0,1.1,90,0.00,,,0.04,VWS V14.01,2013-08-27 14:04:00,
2013-08-27 07:07:00,61.3,58.4,29.79,NE,45,0.9,1.1,90,0.00,,,0.04,VWS V14.01,2013-08-27 14:07:00,
2013-08-27 07:08:00,61.3,58.1,29.79,ENE,68,0.0,1.1,89,0.00,,,0.04,VWS V14.01,2013-08-27 14:08:00,
2013-08-27 07:09:00,61.3,58.1,29.79,NNW,338,0.0,1.1,89,0.00,,,0.04,VWS V14.01,2013-08-27 14:09:00,
2013-08-27 07:12:00,61.3,58.1,29.79,East,90,0.0,1.1,89,0.00,,,0.04,VWS V14.01,2013-08-27 14:12:00,
2013-08-27 07:13:00,61.3,58.1,29.79,East,90,0.0,1.1,89,0.00,,,0.04,VWS V14.01,2013-08-27 14:13:00,
2013-08-27 07:14:00,61.3,58.1,29.79,East,90,0.0,1.1,89,0.00,,,0.04,VWS V14.01,2013-08-27 14:14:00,
2013-08-27 07:17:00,61.3,58.1,29.79,SE,135,0.0,0.9,89,0.00,,,0.04,VWS V14.01,2013-08-27 14:17:00,
2013-08-27 07:18:00,61.3,58.1,29.79,East,90,0.0,0.9,89,0.00,,,0.04,VWS V14.01,2013-08-27 14:18:00,
2013-08-27 07:19:00,61.5,58.2,29.79,East,90,1.1,1.1,89,0.00,,,0.04,VWS V14.01,2013-08-27 14:19:00,
2013-08-27 07:22:00,61.5,58.2,29.79,NNW,338,0.0,1.1,89,0.00,,,0.04,VWS V14.01,2013-08-27 14:22:00,
2013-08-27 07:23:00,61.5,58.2,29.79,NNE,22,1.3,1.3,89,0.00,,,0.04,VWS V14.01,2013-08-27 14:23:00,
2013-08-27 07:24:00,61.5,58.2,29.79,ENE,68,0.0,1.3,89,0.00,,,0.04,VWS V14.01,2013-08-27 14:24:00,
2013-08-27 07:27:00,61.7,58.1,29.79,NE,45,0.0,1.3,88,0.00,,,0.04,VWS V14.01,2013-08-27 14:27:00,
2013-08-27 07:28:00,61.7,58.1,29.79,NE,45,0.0,1.3,88,0.00,,,0.04,VWS V14.01,2013-08-27 14:28:00,
2013-08-27 07:29:00,61.9,58.3,29.79,NE,45,0.0,1.3,88,0.00,,,0.04,VWS V14.01,2013-08-27 14:29:00,
2013-08-27 07:32:00,61.9,58.3,29.79,SSW,202,0.0,1.3,88,0.00,,,0.04,VWS V14.01,2013-08-27 14:32:00,
2013-08-27 07:33:00,61.9,58.3,29.79,SW,225,0.0,1.3,88,0.00,,,0.04,VWS V14.01,2013-08-27 14:33:00,
2013-08-27 07:34:00,61.9,58.3,29.79,SW,225,0.0,1.3,88,0.00,,,0.04,VWS V14.01,2013-08-27 14:34:00,
2013-08-27 07:38:00,61.9,58.6,29.79,East,90,0.0,1.3,89,0.00,,,0.04,VWS V14.01,2013-08-27 14:38:00,
2013-08-27 07:39:00,61.9,58.6,29.79,East,90,0.0,1.3,89,0.00,,,0.04,VWS V14.01,2013-08-27 14:39:00,
2013-08-27 07:43:00,61.9,58.6,29.79,East,90,0.0,0.0,89,0.00,,,0.04,VWS V14.01,2013-08-27 14:43:00,
2013-08-27 07:44:00,61.7,58.4,29.79,East,90,0.0,0.0,89,0.00,,,0.04,VWS V14.01,2013-08-27 14:44:00,
2013-08-27 07:48:00,61.7,58.7,29.79,East,90,0.0,0.0,90,0.00,,,0.04,VWS V14.01,2013-08-27 14:48:00,
2013-08-27 07:49:00,61.7,58.7,29.79,East,90,0.0,0.0,90,0.00,,,0.04,VWS V14.01,2013-08-27 14:49:00,
2013-08-27 07:53:00,61.7,58.7,29.79,East,90,0.0,0.0,90,0.00,,,0.04,VWS V14.01,2013-08-27 14:53:00,
2013-08-27 07:54:00,61.7,58.7,29.79,East,90,0.0,0.0,90,0.00,,,0.04,VWS V14.01,2013-08-27 14:54:00,
2013-08-27 07:58:00,61.7,58.7,29.79,East,90,0.0,0.0,90,0.00,,,0.04,VWS V14.01,2013-08-27 14:58:00,
2013-08-27 07:59:00,61.7,58.7,29.79,East,90,0.0,0.0,90,0.00,,,0.04,VWS V14.01,2013-08-27 14:59:00,
2013-08-27 08:03:00,61.9,58.9,29.79,East,90,0.0,0.0,90,0.00,,,0.04,VWS V14.01,2013-08-27 15:03:00,
2013-08-27 08:04:00,61.9,58.9,29.79,East,90,0.0,0.0,90,0.00,,,0.04,VWS V14.01,2013-08-27 15:04:00,
2013-08-27 08:08:00,62.1,59.1,29.79,East,90,0.0,0.0,90,0.00,,,0.04,VWS V14.01,2013-08-27 15:08:00,
2013-08-27 08:09:00,62.1,59.1,29.79,East,90,0.0,0.0,90,0.00,,,0.04,VWS V14.01,2013-08-27 15:09:00,
2013-08-27 08:13:00,62.2,59.0,29.79,East,90,0.0,0.0,89,0.00,,,0.04,VWS V14.01,2013-08-27 15:13:00,
2013-08-27 08:14:00,62.2,59.0,29.79,East,90,0.0,0.0,89,0.00,,,0.04,VWS V14.01,2013-08-27 15:14:00,
2013-08-27 08:18:00,62.4,59.1,29.79,East,90,0.0,0.0,89,0.00,,,0.04,VWS V14.01,2013-08-27 15:18:00,
2013-08-27 08:19:00,62.4,59.1,29.79,East,90,0.0,0.0,89,0.00,,,0.04,VWS V14.01,2013-08-27 15:19:00,
2013-08-27 08:23:00,62.6,59.3,29.79,East,90,0.0,0.0,89,0.00,,,0.04,VWS V14.01,2013-08-27 15:23:00,
2013-08-27 08:24:00,62.6,59.3,29.79,East,90,0.0,0.0,89,0.00,,,0.04,VWS V14.01,2013-08-27 15:24:00,
2013-08-27 08:25:00,62.6,59.3,29.79,East,90,0.0,0.0,89,0.00,,,0.04,VWS V14.01,2013-08-27 15:25:00,
2013-08-27 08:28:00,62.8,59.2,29.79,East,90,0.0,0.0,88,0.00,,,0.04,VWS V14.01,2013-08-27 15:28:00,
2013-08-27 08:29:00,62.8,59.2,29.79,ENE,68,0.0,0.0,88,0.00,,,0.04,VWS V14.01,2013-08-27 15:29:00,
2013-08-27 08:30:00,62.8,59.2,29.79,NNW,338,0.0,0.0,88,0.00,,,0.04,VWS V14.01,2013-08-27 15:30:00,
2013-08-27 08:33:00,62.8,59.2,29.79,NNW,338,0.0,0.0,88,0.00,,,0.04,VWS V14.01,2013-08-27 15:33:00,
2013-08-27 08:34:00,63.0,59.4,29.79,WNW,292,0.0,0.0,88,0.00,,,0.04,VWS V14.01,2013-08-27 15:34:00,
2013-08-27 08:35:00,63.0,59.4,29.79,WNW,292,0.0,0.0,88,0.00,,,0.04,VWS V14.01,2013-08-27 15:35:00,
2013-08-27 08:38:00,63.0,59.0,29.79,NW,315,0.0,0.0,87,0.00,,,0.04,VWS V14.01,2013-08-27 15:38:00,
2013-08-27 08:39:00,63.1,59.5,29.79,NNW,338,0.0,0.0,88,0.00,,,0.04,VWS V14.01,2013-08-27 15:39:00,
2013-08-27 08:40:00,63.1,59.5,29.79,NNW,338,0.0,0.0,88,0.00,,,0.04,VWS V14.01,2013-08-27 15:40:00,
2013-08-27 08:43:00,63.1,59.5,29.79,ENE,68,0.0,0.0,88,0.00,,,0.04,VWS V14.01,2013-08-27 15:43:00,
2013-08-27 08:45:00,63.1,59.5,29.79,ENE,68,0.0,0.0,88,0.00,,,0.04,VWS V14.01,2013-08-27 15:45:00,
2013-08-27 08:48:00,63.3,59.4,29.79,ENE,68,0.0,0.0,87,0.00,,,0.04,VWS V14.01,2013-08-27 15:48:00,
2013-08-27 08:50:00,63.3,59.4,29.79,ENE,68,0.0,0.0,87,0.00,,,0.04,VWS V14.01,2013-08-27 15:50:00,
2013-08-27 08:53:00,63.3,59.4,29.79,ENE,68,0.0,0.0,87,0.00,,,0.04,VWS V14.01,2013-08-27 15:53:00,
2013-08-27 08:55:00,63.3,59.4,29.79,East,90,0.0,0.0,87,0.00,,,0.04,VWS V14.01,2013-08-27 15:55:00,
2013-08-27 08:58:00,63.5,59.6,29.79,East,90,0.0,0.0,87,0.00,,,0.04,VWS V14.01,2013-08-27 15:58:00,
2013-08-27 09:00:00,63.5,59.6,29.79,East,90,0.0,0.0,87,0.00,,,0.04,VWS V14.01,2013-08-27 16:00:00,
2013-08-27 09:03:00,63.5,59.2,29.79,East,90,0.0,0.0,86,0.00,,,0.04,VWS V14.01,2013-08-27 16:03:00,
2013-08-27 09:05:00,63.5,59.2,29.79,East,90,0.0,0.0,86,0.00,,,0.04,VWS V14.01,2013-08-27 16:05:00,
2013-08-27 09:08:00,63.7,59.4,29.79,East,90,0.0,0.0,86,0.00,,,0.04,VWS V14.01,2013-08-27 16:08:00,
2013-08-27 09:10:00,63.7,59.4,29.76,East,90,0.0,0.0,86,0.00,,,0.04,VWS V14.01,2013-08-27 16:10:00,
2013-08-27 09:13:00,63.9,59.6,29.76,East,90,0.0,0.0,86,0.00,,,0.04,VWS V14.01,2013-08-27 16:13:00,
2013-08-27 09:15:00,63.9,59.6,29.76,East,90,0.0,0.0,86,0.00,,,0.04,VWS V14.01,2013-08-27 16:15:00,
2013-08-27 09:18:00,64.2,60.0,29.76,East,90,0.0,0.0,86,0.00,,,0.04,VWS V14.01,2013-08-27 16:18:00,
2013-08-27 09:20:00,64.2,60.0,29.76,East,90,0.0,0.0,86,0.00,,,0.04,VWS V14.01,2013-08-27 16:20:00,
2013-08-27 09:24:00,64.2,60.0,29.76,East,90,0.0,0.0,86,0.00,,,0.04,VWS V14.01,2013-08-27 16:24:00,
2013-08-27 09:25:00,64.2,60.0,29.76,East,90,0.0,0.0,86,0.00,,,0.04,VWS V14.01,2013-08-27 16:25:00,
2013-08-27 09:26:00,64.4,60.1,29.76,East,90,0.0,0.0,86,0.00,,,0.04,VWS V14.01,2013-08-27 16:26:00,
2013-08-27 09:29:00,64.4,60.1,29.76,NW,315,0.0,0.0,86,0.00,,,0.04,VWS V14.01,2013-08-27 16:29:00,
2013-08-27 09:30:00,64.6,60.0,29.76,NW,315,0.0,0.0,85,0.00,,,0.04,VWS V14.01,2013-08-27 16:30:00,
2013-08-27 09:31:00,64.6,60.0,29.76,NW,315,0.0,0.0,85,0.00,,,0.04,VWS V14.01,2013-08-27 16:31:00,
2013-08-27 09:34:00,64.8,60.2,29.76,North,0,0.0,0.0,85,0.00,,,0.04,VWS V14.01,2013-08-27 16:34:00,
2013-08-27 09:35:00,64.8,60.2,29.76,North,0,0.0,0.0,85,0.00,,,0.04,VWS V14.01,2013-08-27 16:35:00,
2013-08-27 09:36:00,64.8,60.2,29.76,North,0,0.0,0.0,85,0.00,,,0.04,VWS V14.01,2013-08-27 16:36:00,
2013-08-27 09:39:00,64.9,60.3,29.76,ENE,68,0.0,0.0,85,0.00,,,0.04,VWS V14.01,2013-08-27 16:39:00,
2013-08-27 09:40:00,64.9,60.3,29.76,East,90,0.0,0.0,85,0.00,,,0.04,VWS V14.01,2013-08-27 16:40:00,
2013-08-27 09:41:00,64.9,60.0,29.76,East,90,0.0,0.0,84,0.00,,,0.04,VWS V14.01,2013-08-27 16:41:00,
2013-08-27 09:44:00,65.3,60.7,29.76,East,90,0.0,0.0,85,0.00,,,0.04,VWS V14.01,2013-08-27 16:44:00,
2013-08-27 09:45:00,65.3,60.7,29.76,East,90,0.0,0.0,85,0.00,,,0.04,VWS V14.01,2013-08-27 16:45:00,
2013-08-27 09:46:00,65.3,60.7,29.76,East,90,0.0,0.0,85,0.00,,,0.04,VWS V14.01,2013-08-27 16:46:00,
2013-08-27 09:49:00,65.5,60.9,29.76,NE,45,0.0,0.0,85,0.00,,,0.04,VWS V14.01,2013-08-27 16:49:00,
2013-08-27 09:50:00,65.5,60.9,29.76,East,90,0.0,0.0,85,0.00,,,0.04,VWS V14.01,2013-08-27 16:50:00,
2013-08-27 09:51:00,65.5,60.9,29.76,East,90,0.0,0.0,85,0.00,,,0.04,VWS V14.01,2013-08-27 16:51:00,
2013-08-27 09:54:00,65.8,60.9,29.76,ENE,68,0.0,0.0,84,0.00,,,0.04,VWS V14.01,2013-08-27 16:54:00,
2013-08-27 09:55:00,66.0,61.0,29.76,ENE,68,0.0,0.0,84,0.00,,,0.04,VWS V14.01,2013-08-27 16:55:00,
2013-08-27 09:56:00,66.0,61.0,29.76,ENE,68,0.0,0.0,84,0.00,,,0.04,VWS V14.01,2013-08-27 16:56:00,
2013-08-27 09:59:00,66.4,61.1,29.76,East,90,0.0,0.0,83,0.00,,,0.04,VWS V14.01,2013-08-27 16:59:00,
2013-08-27 10:00:00,66.4,60.7,29.76,East,90,0.0,0.0,82,0.00,,,0.04,VWS V14.01,2013-08-27 17:00:00,
2013-08-27 10:01:00,66.4,60.7,29.76,NE,45,0.0,0.0,82,0.00,,,0.04,VWS V14.01,2013-08-27 17:01:00,
2013-08-27 10:04:00,66.9,61.6,29.76,East,90,0.0,0.0,83,0.00,,,0.04,VWS V14.01,2013-08-27 17:04:00,
2013-08-27 10:05:00,67.1,61.4,29.76,NNE,22,0.0,0.0,82,0.00,,,0.04,VWS V14.01,2013-08-27 17:05:00,
2013-08-27 10:06:00,67.1,61.4,29.76,NNE,22,0.0,0.0,82,0.00,,,0.04,VWS V14.01,2013-08-27 17:06:00,
2013-08-27 10:09:00,66.9,61.2,29.76,East,90,0.0,0.0,82,0.00,,,0.04,VWS V14.01,2013-08-27 17:09:00,
2013-08-27 10:10:00,66.7,61.1,29.76,East,90,0.0,0.0,82,0.00,,,0.04,VWS V14.01,2013-08-27 17:10:00,
2013-08-27 10:11:00,66.7,61.1,29.76,East,90,0.0,0.0,82,0.00,,,0.04,VWS V14.01,2013-08-27 17:11:00,
2013-08-27 10:14:00,66.9,61.2,29.76,ENE,68,0.0,0.0,82,0.00,,,0.04,VWS V14.01,2013-08-27 17:14:00,
2013-08-27 10:15:00,66.9,61.2,29.76,ENE,68,0.0,0.0,82,0.00,,,0.04,VWS V14.01,2013-08-27 17:15:00,
2013-08-27 10:16:00,66.9,61.2,29.76,NE,45,0.0,0.0,82,0.00,,,0.04,VWS V14.01,2013-08-27 17:16:00,
2013-08-27 10:19:00,67.5,61.4,29.76,East,90,0.0,0.0,81,0.00,,,0.04,VWS V14.01,2013-08-27 17:19:00,
2013-08-27 10:20:00,67.5,61.4,29.76,WNW,292,0.0,0.0,81,0.00,,,0.04,VWS V14.01,2013-08-27 17:20:00,
2013-08-27 10:21:00,67.5,61.4,29.76,WNW,292,0.0,0.0,81,0.00,,,0.04,VWS V14.01,2013-08-27 17:21:00,
2013-08-27 10:24:00,68.0,62.0,29.76,ENE,68,0.9,0.9,81,0.00,,,0.00,VWS V14.01,2013-08-27 17:24:00,
2013-08-27 10:26:00,68.0,62.0,29.76,NNW,338,0.0,0.9,81,0.00,,,0.04,VWS V14.01,2013-08-27 17:26:00,
2013-08-27 10:29:00,67.6,61.3,29.76,ENE,68,0.0,0.9,80,0.00,,,0.04,VWS V14.01,2013-08-27 17:29:00,
2013-08-27 10:31:00,67.6,61.3,29.76,East,90,0.0,0.9,80,0.00,,,0.04,VWS V14.01,2013-08-27 17:31:00,
2013-08-27 10:34:00,67.6,61.3,29.74,NE,45,0.0,0.0,80,0.00,,,0.04,VWS V14.01,2013-08-27 17:34:00,
2013-08-27 10:36:00,67.8,61.8,29.74,NE,45,0.0,0.0,81,0.00,,,0.04,VWS V14.01,2013-08-27 17:36:00,
2013-08-27 10:39:00,67.6,61.3,29.74,ENE,68,0.0,1.3,80,0.00,,,0.04,VWS V14.01,2013-08-27 17:39:00,
2013-08-27 10:41:00,67.8,61.4,29.74,ENE,68,0.0,1.3,80,0.00,,,0.04,VWS V14.01,2013-08-27 17:41:00,
2013-08-27 10:42:00,67.8,61.4,29.74,ENE,68,0.0,1.3,80,0.00,,,0.04,VWS V14.01,2013-08-27 17:42:00,
2013-08-27 10:45:00,68.2,61.8,29.74,ENE,68,0.0,1.3,80,0.00,,,0.04,VWS V14.01,2013-08-27 17:45:00,
2013-08-27 10:46:00,68.2,61.8,29.74,East,90,0.0,1.3,80,0.00,,,0.04,VWS V14.01,2013-08-27 17:46:00,
2013-08-27 10:47:00,68.2,61.8,29.74,East,90,0.0,1.3,80,0.00,,,0.04,VWS V14.01,2013-08-27 17:47:00,
2013-08-27 10:50:00,68.9,62.8,29.74,East,90,0.0,1.3,81,0.00,,,0.04,VWS V14.01,2013-08-27 17:50:00,
2013-08-27 10:51:00,68.9,62.5,29.74,East,90,0.0,0.0,80,0.00,,,0.04,VWS V14.01,2013-08-27 17:51:00,
2013-08-27 10:52:00,68.9,62.5,29.74,East,90,0.0,0.0,80,0.00,,,0.04,VWS V14.01,2013-08-27 17:52:00,
2013-08-27 10:55:00,69.4,63.0,29.74,NNW,338,0.0,0.0,80,0.00,,,0.04,VWS V14.01,2013-08-27 17:55:00,
2013-08-27 10:56:00,69.6,63.2,29.74,East,90,0.0,0.0,80,0.00,,,0.04,VWS V14.01,2013-08-27 17:56:00,
2013-08-27 10:57:00,69.6,63.2,29.74,East,90,0.0,0.0,80,0.00,,,0.04,VWS V14.01,2013-08-27 17:57:00,
2013-08-27 11:00:00,69.4,62.7,29.74,ENE,68,2.2,3.4,79,0.00,,,0.04,VWS V14.01,2013-08-27 18:00:00,
2013-08-27 11:01:00,69.4,62.7,29.74,WNW,292,0.0,3.4,79,0.00,,,0.04,VWS V14.01,2013-08-27 18:01:00,
2013-08-27 11:02:00,69.4,62.7,29.74,WNW,292,0.0,3.4,79,0.00,,,0.04,VWS V14.01,2013-08-27 18:02:00,
2013-08-27 11:05:00,69.4,62.7,29.74,NE,45,0.0,2.2,79,0.00,,,0.04,VWS V14.01,2013-08-27 18:05:00,
2013-08-27 11:06:00,69.4,62.7,29.74,ENE,68,0.0,0.0,79,0.00,,,0.04,VWS V14.01,2013-08-27 18:06:00,
2013-08-27 11:07:00,69.4,62.7,29.74,ENE,68,0.0,0.0,79,0.00,,,0.04,VWS V14.01,2013-08-27 18:07:00,
2013-08-27 11:10:00,69.8,62.6,29.74,North,0,0.0,1.3,78,0.00,,,0.04,VWS V14.01,2013-08-27 18:10:00,
2013-08-27 11:11:00,69.8,62.6,29.74,NNE,22,0.0,1.3,78,0.00,,,0.04,VWS V14.01,2013-08-27 18:11:00,
2013-08-27 11:12:00,69.8,62.6,29.74,ENE,68,0.0,1.3,78,0.00,,,0.04,VWS V14.01,2013-08-27 18:12:00,
2013-08-27 11:15:00,69.6,61.7,29.74,NE,45,0.0,1.3,76,0.00,,,0.04,VWS V14.01,2013-08-27 18:15:00,
2013-08-27 11:16:00,69.4,61.5,29.74,NE,45,0.0,2.2,76,0.00,,,0.04,VWS V14.01,2013-08-27 18:16:00,
2013-08-27 11:17:00,69.4,61.5,29.74,NE,45,0.0,2.2,76,0.00,,,0.04,VWS V14.01,2013-08-27 18:17:00,
2013-08-27 11:20:00,69.8,61.9,29.74,North,0,0.0,2.2,76,0.00,,,0.04,VWS V14.01,2013-08-27 18:20:00,
2013-08-27 11:22:00,70.0,62.5,29.74,East,90,0.9,2.2,77,0.00,,,0.04,VWS V14.01,2013-08-27 18:22:00,
2013-08-27 11:25:00,70.2,62.2,29.74,NW,315,2.2,2.2,76,0.00,,,0.04,VWS V14.01,2013-08-27 18:25:00,
2013-08-27 11:27:00,70.0,61.7,29.74,NNW,338,0.0,2.2,75,0.00,,,0.04,VWS V14.01,2013-08-27 18:27:00,
2013-08-27 11:30:00,70.3,62.0,29.74,NNW,338,0.0,2.2,75,0.00,,,0.04,VWS V14.01,2013-08-27 18:30:00,
2013-08-27 11:32:00,70.3,61.7,29.74,East,90,0.0,2.2,74,0.00,,,0.04,VWS V14.01,2013-08-27 18:32:00,
2013-08-27 11:35:00,70.5,61.8,29.74,East,90,1.3,1.3,74,0.00,,,0.04,VWS V14.01,2013-08-27 18:35:00,
2013-08-27 11:37:00,70.3,61.7,29.74,East,90,2.7,2.7,74,0.00,,,0.04,VWS V14.01,2013-08-27 18:37:00,
2013-08-27 11:40:00,70.7,61.6,29.74,NE,45,3.1,3.1,73,0.00,,,0.04,VWS V14.01,2013-08-27 18:40:00,
2013-08-27 11:42:00,70.9,61.8,29.74,ENE,68,1.3,3.1,73,0.00,,,0.04,VWS V14.01,2013-08-27 18:42:00,
2013-08-27 11:45:00,70.9,61.4,29.74,ENE,68,0.0,3.1,72,0.00,,,0.04,VWS V14.01,2013-08-27 18:45:00,
2013-08-27 11:47:00,71.1,61.6,29.74,ENE,68,2.9,3.1,72,0.00,,,0.04,VWS V14.01,2013-08-27 18:47:00,
2013-08-27 11:48:00,70.9,61.0,29.74,ENE,68,2.9,3.1,71,0.00,,,0.04,VWS V14.01,2013-08-27 18:48:00,
2013-08-27 11:50:00,70.9,61.0,29.74,SE,135,2.5,3.6,71,0.00,,,0.04,VWS V14.01,2013-08-27 18:50:00,
2013-08-27 11:52:00,71.1,61.2,29.74,NE,45,3.6,3.6,71,0.00,,,0.04,VWS V14.01,2013-08-27 18:52:00,
2013-08-27 11:53:00,71.1,61.2,29.74,East,90,2.5,3.6,71,0.00,,,0.04,VWS V14.01,2013-08-27 18:53:00,
2013-08-27 11:55:00,71.6,61.7,29.74,NE,45,1.3,3.6,71,0.00,,,0.04,VWS V14.01,2013-08-27 18:55:00,
2013-08-27 11:57:00,71.6,61.3,29.74,ENE,68,0.0,3.6,70,0.00,,,0.04,VWS V14.01,2013-08-27 18:57:00,
2013-08-27 11:58:00,71.6,61.3,29.74,ENE,68,0.0,3.6,70,0.00,,,0.04,VWS V14.01,2013-08-27 18:58:00,
2013-08-27 12:01:00,71.6,61.3,29.74,WNW,292,0.0,3.6,70,0.00,,,0.04,VWS V14.01,2013-08-27 19:01:00,
2013-08-27 12:02:00,71.6,61.3,29.71,NNW,338,0.0,3.6,70,0.00,,,0.04,VWS V14.01,2013-08-27 19:02:00,
2013-08-27 12:03:00,71.6,61.3,29.71,NNW,338,0.0,3.6,70,0.00,,,0.04,VWS V14.01,2013-08-27 19:03:00,
2013-08-27 12:06:00,71.6,61.3,29.71,WSW,248,0.0,3.6,70,0.00,,,0.04,VWS V14.01,2013-08-27 19:06:00,
2013-08-27 12:07:00,71.6,61.3,29.71,West,270,0.0,3.6,70,0.00,,,0.04,VWS V14.01,2013-08-27 19:07:00,
2013-08-27 12:08:00,71.6,61.3,29.71,East,90,2.7,3.6,70,0.00,,,0.04,VWS V14.01,2013-08-27 19:08:00,
2013-08-27 12:11:00,71.4,61.1,29.71,ENE,68,0.9,2.7,70,0.00,,,0.04,VWS V14.01,2013-08-27 19:11:00,
2013-08-27 12:12:00,71.6,61.3,29.71,ENE,68,0.0,2.7,70,0.00,,,0.04,VWS V14.01,2013-08-27 19:12:00,
2013-08-27 12:13:00,71.6,61.3,29.71,ENE,68,0.0,2.7,70,0.00,,,0.04,VWS V14.01,2013-08-27 19:13:00,
2013-08-27 12:16:00,71.6,61.3,29.71,NNW,338,0.0,2.7,70,0.00,,,0.04,VWS V14.01,2013-08-27 19:16:00,
2013-08-27 12:17:00,71.8,61.5,29.71,ENE,68,2.0,2.7,70,0.00,,,0.04,VWS V14.01,2013-08-27 19:17:00,
2013-08-27 12:18:00,72.0,61.7,29.71,ENE,68,2.0,2.7,70,0.00,,,0.04,VWS V14.01,2013-08-27 19:18:00,
2013-08-27 12:21:00,72.1,61.8,29.71,ENE,68,2.7,2.7,70,0.00,,,0.04,VWS V14.01,2013-08-27 19:21:00,
2013-08-27 12:22:00,72.1,61.8,29.71,NNE,22,3.1,3.1,70,0.00,,,0.04,VWS V14.01,2013-08-27 19:22:00,
2013-08-27 12:23:00,72.1,61.8,29.71,NNE,22,3.1,3.1,70,0.00,,,0.04,VWS V14.01,2013-08-27 19:23:00,
2013-08-27 12:26:00,71.8,61.1,29.71,NNW,338,3.6,3.8,69,0.00,,,0.04,VWS V14.01,2013-08-27 19:26:00,
2013-08-27 12:27:00,71.8,61.1,29.71,East,90,0.9,3.8,69,0.00,,,0.04,VWS V14.01,2013-08-27 19:27:00,
2013-08-27 12:28:00,71.8,61.1,29.71,East,90,0.9,3.8,69,0.00,,,0.04,VWS V14.01,2013-08-27 19:28:00,
2013-08-27 12:31:00,71.8,61.1,29.71,NE,45,0.0,3.8,69,0.00,,,0.04,VWS V14.01,2013-08-27 19:31:00,
2013-08-27 12:32:00,71.8,61.1,29.71,NNE,22,2.5,3.8,69,0.00,,,0.04,VWS V14.01,2013-08-27 19:32:00,
2013-08-27 12:33:00,71.8,61.1,29.71,NNE,22,2.5,3.8,69,0.00,,,0.04,VWS V14.01,2013-08-27 19:33:00,
2013-08-27 12:36:00,72.1,61.4,29.71,NNE,22,1.6,3.8,69,0.00,,,0.04,VWS V14.01,2013-08-27 19:36:00,
2013-08-27 12:37:00,72.1,61.4,29.71,NNE,22,2.0,3.8,69,0.00,,,0.04,VWS V14.01,2013-08-27 19:37:00,
2013-08-27 12:38:00,72.1,61.4,29.71,NNE,22,2.0,3.8,69,0.00,,,0.04,VWS V14.01,2013-08-27 19:38:00,
2013-08-27 12:41:00,72.0,61.2,29.71,NE,45,2.7,3.6,69,0.00,,,0.04,VWS V14.01,2013-08-27 19:41:00,
2013-08-27 12:43:00,72.0,61.2,29.71,WNW,292,2.5,3.6,69,0.00,,,0.04,VWS V14.01,2013-08-27 19:43:00,
2013-08-27 12:46:00,71.8,61.1,29.71,SE,135,1.6,3.6,69,0.00,,,0.04,VWS V14.01,2013-08-27 19:46:00,
2013-08-27 12:48:00,72.0,61.2,29.71,East,90,0.0,3.1,69,0.00,,,0.04,VWS V14.01,2013-08-27 19:48:00,
2013-08-27 12:51:00,72.3,61.6,29.71,WSW,248,0.0,3.1,69,0.00,,,0.04,VWS V14.01,2013-08-27 19:51:00,
2013-08-27 12:53:00,72.3,61.6,29.71,NNW,338,0.0,3.1,69,0.00,,,0.04,VWS V14.01,2013-08-27 19:53:00,
2013-08-27 12:56:00,72.5,61.3,29.71,NNW,338,0.0,3.8,68,0.00,,,0.04,VWS V14.01,2013-08-27 19:56:00,
2013-08-27 12:58:00,72.5,61.3,29.71,East,90,0.0,3.8,68,0.00,,,0.04,VWS V14.01,2013-08-27 19:58:00,
2013-08-27 13:01:00,73.0,62.3,29.71,East,90,3.4,3.8,69,0.00,,,0.04,VWS V14.01,2013-08-27 20:01:00,
2013-08-27 13:03:00,73.0,62.3,29.71,East,90,0.0,3.8,69,0.00,,,0.04,VWS V14.01,2013-08-27 20:03:00,
2013-08-27 13:04:00,73.4,62.6,29.71,East,90,1.6,3.8,69,0.00,,,0.04,VWS V14.01,2013-08-27 20:04:00,
2013-08-27 13:07:00,73.4,62.6,29.71,East,90,2.5,3.8,69,0.00,,,0.00,VWS V14.01,2013-08-27 20:07:00,
2013-08-27 13:08:00,73.2,62.0,29.71,East,90,0.0,3.8,68,0.00,,,0.04,VWS V14.01,2013-08-27 20:08:00,
2013-08-27 13:09:00,73.2,62.0,29.71,ENE,68,0.0,3.8,68,0.00,,,0.04,VWS V14.01,2013-08-27 20:09:00,
2013-08-27 13:12:00,73.2,62.5,29.71,NE,45,2.2,3.4,69,0.00,,,0.04,VWS V14.01,2013-08-27 20:12:00,
2013-08-27 13:13:00,73.2,62.5,29.71,NNE,22,0.0,3.4,69,0.00,,,0.04,VWS V14.01,2013-08-27 20:13:00,
2013-08-27 13:14:00,73.2,62.5,29.71,NE,45,1.3,3.4,69,0.00,,,0.04,VWS V14.01,2013-08-27 20:14:00,
2013-08-27 13:17:00,73.2,62.5,29.71,NNW,338,0.0,3.4,69,0.00,,,0.04,VWS V14.01,2013-08-27 20:17:00,
2013-08-27 13:18:00,73.4,62.2,29.68,NNW,338,0.0,2.5,68,0.00,,,0.04,VWS V14.01,2013-08-27 20:18:00,
2013-08-27 13:19:00,73.6,62.4,29.68,NNE,22,0.0,2.5,68,0.00,,,0.04,VWS V14.01,2013-08-27 20:19:00,
2013-08-27 13:22:00,73.4,62.2,29.68,NNW,338,0.0,2.5,68,0.00,,,0.04,VWS V14.01,2013-08-27 20:22:00,
2013-08-27 13:23:00,73.4,62.2,29.68,ENE,68,0.0,2.5,68,0.00,,,0.04,VWS V14.01,2013-08-27 20:23:00,
2013-08-27 13:24:00,73.4,62.2,29.68,NE,45,0.0,2.2,68,0.00,,,0.04,VWS V14.01,2013-08-27 20:24:00,
2013-08-27 13:27:00,73.4,62.2,29.68,SSW,202,0.0,2.2,68,0.00,,,0.04,VWS V14.01,2013-08-27 20:27:00,
2013-08-27 13:28:00,73.4,62.2,29.68,WSW,248,0.0,1.6,68,0.00,,,0.04,VWS V14.01,2013-08-27 20:28:00,
2013-08-27 13:29:00,73.4,62.2,29.68,WSW,248,0.0,1.6,68,0.00,,,0.04,VWS V14.01,2013-08-27 20:29:00,
2013-08-27 13:32:00,73.4,61.8,29.68,NE,45,0.0,1.6,67,0.00,,,0.04,VWS V14.01,2013-08-27 20:32:00,
2013-08-27 13:33:00,73.4,61.8,29.68,ESE,112,0.0,1.6,67,0.00,,,0.04,VWS V14.01,2013-08-27 20:33:00,
2013-08-27 13:34:00,73.4,61.8,29.68,East,90,0.0,1.6,67,0.00,,,0.04,VWS V14.01,2013-08-27 20:34:00,
2013-08-27 13:37:00,73.6,62.4,29.68,East,90,0.0,1.6,68,0.00,,,0.04,VWS V14.01,2013-08-27 20:37:00,
2013-08-27 13:38:00,73.6,62.0,29.68,South,180,0.0,1.6,67,0.00,,,0.04,VWS V14.01,2013-08-27 20:38:00,
2013-08-27 13:39:00,73.6,62.0,29.68,South,180,0.0,1.6,67,0.00,,,0.04,VWS V14.01,2013-08-27 20:39:00,
2013-08-27 13:42:00,73.8,62.1,29.68,East,90,2.0,2.0,67,0.00,,,0.04,VWS V14.01,2013-08-27 20:42:00,
2013-08-27 13:43:00,73.9,62.7,29.68,NE,45,0.0,2.0,68,0.00,,,0.04,VWS V14.01,2013-08-27 20:43:00,
2013-08-27 13:44:00,73.9,62.7,29.68,NE,45,0.0,2.0,68,0.00,,,0.04,VWS V14.01,2013-08-27 20:44:00,
2013-08-27 13:47:00,74.3,62.6,29.68,NNW,338,0.0,2.0,67,0.00,,,0.04,VWS V14.01,2013-08-27 20:47:00,
2013-08-27 13:48:00,74.3,62.6,29.68,East,90,1.3,2.2,67,0.00,,,0.04,VWS V14.01,2013-08-27 20:48:00,
2013-08-27 13:49:00,74.3,62.6,29.68,East,90,1.3,2.2,67,0.00,,,0.04,VWS V14.01,2013-08-27 20:49:00,
2013-08-27 13:52:00,74.3,62.6,29.68,NE,45,0.0,2.2,67,0.00,,,0.04,VWS V14.01,2013-08-27 20:52:00,
2013-08-27 13:53:00,74.3,62.6,29.68,NNW,338,0.0,2.2,67,0.00,,,0.04,VWS V14.01,2013-08-27 20:53:00,
2013-08-27 13:54:00,74.3,62.6,29.68,NNW,338,0.0,2.2,67,0.00,,,0.04,VWS V14.01,2013-08-27 20:54:00,
2013-08-27 13:57:00,74.8,62.7,29.68,ENE,68,0.0,2.2,66,0.00,,,0.04,VWS V14.01,2013-08-27 20:57:00,
2013-08-27 13:59:00,75.0,63.3,29.68,ENE,68,0.0,2.2,67,0.00,,,0.04,VWS V14.01,2013-08-27 20:59:00,
2013-08-27 14:02:00,75.0,62.9,29.68,NNE,22,0.0,2.2,66,0.00,,,0.04,VWS V14.01,2013-08-27 21:02:00,
2013-08-27 14:04:00,74.8,62.7,29.68,NNE,22,0.0,2.2,66,0.00,,,0.04,VWS V14.01,2013-08-27 21:04:00,
2013-08-27 14:07:00,75.0,62.9,29.68,West,270,0.0,2.0,66,0.00,,,0.04,VWS V14.01,2013-08-27 21:07:00,
2013-08-27 14:09:00,75.2,63.1,29.68,NE,45,0.9,2.0,66,0.00,,,0.04,VWS V14.01,2013-08-27 21:09:00,
2013-08-27 14:13:00,75.4,62.8,29.68,NE,45,0.0,2.0,65,0.00,,,0.04,VWS V14.01,2013-08-27 21:13:00,
2013-08-27 14:14:00,75.6,63.0,29.68,NNW,338,0.0,2.0,65,0.00,,,0.04,VWS V14.01,2013-08-27 21:14:00,
2013-08-27 14:15:00,75.6,63.0,29.68,NNW,338,0.0,2.0,65,0.00,,,0.04,VWS V14.01,2013-08-27 21:15:00,
2013-08-27 14:18:00,75.6,63.0,29.68,NE,45,0.9,0.9,65,0.00,,,0.04,VWS V14.01,2013-08-27 21:18:00,
2013-08-27 14:19:00,75.6,63.0,29.68,NNE,22,0.0,0.9,65,0.00,,,0.04,VWS V14.01,2013-08-27 21:19:00,
2013-08-27 14:20:00,75.6,63.0,29.68,NE,45,0.0,0.9,65,0.00,,,0.04,VWS V14.01,2013-08-27 21:20:00,
2013-08-27 14:23:00,75.7,62.7,29.68,North,0,0.0,0.9,64,0.00,,,0.04,VWS V14.01,2013-08-27 21:23:00,
2013-08-27 14:24:00,75.6,63.0,29.68,North,0,0.0,0.9,65,0.00,,,0.04,VWS V14.01,2013-08-27 21:24:00,
2013-08-27 14:25:00,75.4,62.4,29.68,East,90,0.9,1.1,64,0.00,,,0.04,VWS V14.01,2013-08-27 21:25:00,
2013-08-27 14:28:00,75.4,62.4,29.68,ENE,68,0.0,1.1,64,0.00,,,0.04,VWS V14.01,2013-08-27 21:28:00,
2013-08-27 14:29:00,75.4,62.4,29.68,NE,45,0.9,1.1,64,0.00,,,0.04,VWS V14.01,2013-08-27 21:29:00,
2013-08-27 14:30:00,75.4,62.4,29.68,NNE,22,0.0,1.1,64,0.00,,,0.04,VWS V14.01,2013-08-27 21:30:00,
2013-08-27 14:33:00,75.0,62.0,29.68,NE,45,0.0,1.1,64,0.00,,,0.04,VWS V14.01,2013-08-27 21:33:00,
2013-08-27 14:34:00,75.0,62.0,29.68,ENE,68,3.4,3.4,64,0.00,,,0.04,VWS V14.01,2013-08-27 21:34:00,
2013-08-27 14:35:00,75.0,62.0,29.68,ENE,68,3.4,3.4,64,0.00,,,0.04,VWS V14.01,2013-08-27 21:35:00,
2013-08-27 14:38:00,75.0,61.6,29.68,ENE,68,1.1,3.4,63,0.00,,,0.04,VWS V14.01,2013-08-27 21:38:00,
2013-08-27 14:39:00,75.0,62.0,29.68,NNE,22,0.0,3.4,64,0.00,,,0.04,VWS V14.01,2013-08-27 21:39:00,
2013-08-27 14:40:00,75.0,62.0,29.68,North,0,0.9,3.4,64,0.00,,,0.04,VWS V14.01,2013-08-27 21:40:00,
2013-08-27 14:43:00,75.2,62.2,29.68,North,0,0.0,3.4,64,0.00,,,0.04,VWS V14.01,2013-08-27 21:43:00,
2013-08-27 14:44:00,75.2,62.2,29.68,NNW,338,0.0,3.4,64,0.00,,,0.04,VWS V14.01,2013-08-27 21:44:00,
2013-08-27 14:45:00,75.6,62.5,29.68,NNE,22,0.0,3.4,64,0.00,,,0.04,VWS V14.01,2013-08-27 21:45:00,
2013-08-27 14:48:00,75.7,62.7,29.65,NE,45,0.0,3.4,64,0.00,,,0.04,VWS V14.01,2013-08-27 21:48:00,
2013-08-27 14:49:00,75.7,62.7,29.65,NE,45,0.0,3.4,64,0.00,,,0.04,VWS V14.01,2013-08-27 21:49:00,
2013-08-27 14:50:00,75.9,62.9,29.65,North,0,0.0,3.4,64,0.00,,,0.04,VWS V14.01,2013-08-27 21:50:00,
2013-08-27 14:53:00,76.1,62.6,29.65,WNW,292,0.0,1.1,63,0.00,,,0.04,VWS V14.01,2013-08-27 21:53:00,
2013-08-27 14:54:00,76.1,62.6,29.65,WNW,292,0.0,1.1,63,0.00,,,0.04,VWS V14.01,2013-08-27 21:54:00,
2013-08-27 14:55:00,76.1,62.6,29.65,NE,45,0.0,0.9,63,0.00,,,0.04,VWS V14.01,2013-08-27 21:55:00,
2013-08-27 14:58:00,76.1,62.6,29.65,ENE,68,0.0,1.3,63,0.00,,,0.04,VWS V14.01,2013-08-27 21:58:00,
2013-08-27 14:59:00,76.1,62.6,29.65,ENE,68,0.0,1.3,63,0.00,,,0.04,VWS V14.01,2013-08-27 21:59:00,
2013-08-27 15:00:00,76.1,62.6,29.65,ENE,68,0.0,1.3,63,0.00,,,0.04,VWS V14.01,2013-08-27 22:00:00,
2013-08-27 15:04:00,76.5,62.5,29.65,NW,315,0.0,2.0,62,0.00,,,0.04,VWS V14.01,2013-08-27 22:04:00,
2013-08-27 15:05:00,76.5,62.5,29.65,NW,315,0.0,2.0,62,0.00,,,0.04,VWS V14.01,2013-08-27 22:05:00,
2013-08-27 15:09:00,76.5,62.5,29.65,NNE,22,1.3,2.0,62,0.00,,,0.04,VWS V14.01,2013-08-27 22:09:00,
2013-08-27 15:10:00,76.5,62.5,29.65,NE,45,0.0,2.0,62,0.00,,,0.04,VWS V14.01,2013-08-27 22:10:00,
2013-08-27 15:14:00,76.5,62.5,29.65,NNE,22,0.0,2.0,62,0.00,,,0.04,VWS V14.01,2013-08-27 22:14:00,
2013-08-27 15:15:00,76.6,62.7,29.65,NNE,22,0.0,2.0,62,0.00,,,0.04,VWS V14.01,2013-08-27 22:15:00,
2013-08-27 15:19:00,76.8,63.3,29.65,NW,315,0.0,2.0,63,0.00,,,0.04,VWS V14.01,2013-08-27 22:19:00,
2013-08-27 15:20:00,76.8,62.8,29.65,NW,315,0.0,2.0,62,0.00,,,0.04,VWS V14.01,2013-08-27 22:20:00,
2013-08-27 15:21:00,76.8,62.8,29.65,NW,315,0.0,2.0,62,0.00,,,0.04,VWS V14.01,2013-08-27 22:21:00,
2013-08-27 15:24:00,77.0,63.0,29.65,NNW,338,0.0,2.0,62,0.00,,,0.04,VWS V14.01,2013-08-27 22:24:00,
2013-08-27 15:25:00,77.2,63.2,29.65,ENE,68,0.0,2.0,62,0.00,,,0.04,VWS V14.01,2013-08-27 22:25:00,
2013-08-27 15:26:00,77.2,63.2,29.65,NNW,338,0.0,2.0,62,0.00,,,0.04,VWS V14.01,2013-08-27 22:26:00,
2013-08-27 15:29:00,77.5,63.5,29.65,NNW,338,0.0,2.0,62,0.00,,,0.04,VWS V14.01,2013-08-27 22:29:00,
2013-08-27 15:30:00,77.5,63.5,29.65,NNW,338,0.0,2.0,62,0.00,,,0.04,VWS V14.01,2013-08-27 22:30:00,
2013-08-27 15:31:00,77.5,63.0,29.65,SSE,158,0.0,2.0,61,0.00,,,0.04,VWS V14.01,2013-08-27 22:31:00,
2013-08-27 15:34:00,77.7,63.2,29.65,NNW,338,0.0,0.0,61,0.00,,,0.04,VWS V14.01,2013-08-27 22:34:00,
2013-08-27 15:35:00,77.7,63.2,29.65,NNW,338,0.0,0.0,61,0.00,,,0.04,VWS V14.01,2013-08-27 22:35:00,
2013-08-27 15:36:00,77.9,63.8,29.65,NNW,338,0.0,0.0,62,0.00,,,0.04,VWS V14.01,2013-08-27 22:36:00,
2013-08-27 15:39:00,78.1,63.5,29.65,WNW,292,0.0,0.0,61,0.00,,,0.04,VWS V14.01,2013-08-27 22:39:00,
2013-08-27 15:40:00,78.1,63.5,29.65,WNW,292,0.0,0.0,61,0.00,,,0.04,VWS V14.01,2013-08-27 22:40:00,
2013-08-27 15:41:00,78.1,63.1,29.65,WNW,292,0.0,0.0,60,0.00,,,0.04,VWS V14.01,2013-08-27 22:41:00,
2013-08-27 15:44:00,78.3,62.8,29.65,NNW,338,0.0,0.0,59,0.00,,,0.04,VWS V14.01,2013-08-27 22:44:00,
2013-08-27 15:45:00,78.3,62.8,29.65,NNW,338,0.0,0.0,59,0.00,,,0.04,VWS V14.01,2013-08-27 22:45:00,
2013-08-27 15:46:00,78.3,62.8,29.65,NNW,338,0.0,0.0,59,0.00,,,0.04,VWS V14.01,2013-08-27 22:46:00,
2013-08-27 15:50:00,78.8,63.3,29.62,NNW,338,0.0,1.3,59,0.00,,,0.04,VWS V14.01,2013-08-27 22:50:00,
2013-08-27 15:51:00,78.8,63.3,29.62,NNW,338,0.0,1.3,59,0.00,,,0.04,VWS V14.01,2013-08-27 22:51:00,
2013-08-27 15:55:00,78.6,63.1,29.62,West,270,2.2,3.4,59,0.00,,,0.04,VWS V14.01,2013-08-27 22:55:00,
2013-08-27 15:56:00,78.3,62.8,29.62,WNW,292,1.3,3.4,59,0.00,,,0.04,VWS V14.01,2013-08-27 22:56:00,
2013-08-27 16:00:00,78.1,63.1,29.62,WNW,292,0.0,3.4,60,0.00,,,0.04,VWS V14.01,2013-08-27 23:00:00,
2013-08-27 16:01:00,78.1,63.1,29.62,NW,315,0.0,3.4,60,0.00,,,0.04,VWS V14.01,2013-08-27 23:01:00,
2013-08-27 16:05:00,77.9,62.9,29.62,WNW,292,0.0,3.4,60,0.00,,,0.04,VWS V14.01,2013-08-27 23:05:00,
2013-08-27 16:06:00,77.9,62.9,29.62,WNW,292,0.0,3.4,60,0.00,,,0.04,VWS V14.01,2013-08-27 23:06:00,
2013-08-27 16:10:00,77.9,62.9,29.62,WNW,292,0.0,3.4,60,0.00,,,0.04,VWS V14.01,2013-08-27 23:10:00,
2013-08-27 16:11:00,77.9,62.9,29.62,WNW,292,0.0,2.2,60,0.00,,,0.04,VWS V14.01,2013-08-27 23:11:00,
2013-08-27 16:15:00,77.7,62.7,29.62,NNE,22,0.0,1.6,60,0.00,,,0.04,VWS V14.01,2013-08-27 23:15:00,
2013-08-27 16:16:00,77.7,62.7,29.62,WNW,292,0.0,1.6,60,0.00,,,0.04,VWS V14.01,2013-08-27 23:16:00,
2013-08-27 16:17:00,77.7,62.7,29.65,West,270,0.0,1.6,60,0.00,,,0.04,VWS V14.01,2013-08-27 23:17:00,
2013-08-27 16:20:00,77.7,62.7,29.65,NW,315,0.0,1.6,60,0.00,,,0.04,VWS V14.01,2013-08-27 23:20:00,
2013-08-27 16:21:00,77.7,62.7,29.65,NW,315,0.0,1.6,60,0.00,,,0.04,VWS V14.01,2013-08-27 23:21:00,
2013-08-27 16:22:00,77.5,62.6,29.65,WSW,248,0.0,1.6,60,0.00,,,0.04,VWS V14.01,2013-08-27 23:22:00,
2013-08-27 16:25:00,77.5,62.1,29.65,SSW,202,0.0,0.0,59,0.00,,,0.04,VWS V14.01,2013-08-27 23:25:00,
2013-08-27 16:26:00,77.5,62.1,29.65,WNW,292,0.9,0.9,59,0.00,,,0.04,VWS V14.01,2013-08-27 23:26:00,
2013-08-27 16:27:00,77.5,62.1,29.65,WNW,292,1.3,1.3,59,0.00,,,0.04,VWS V14.01,2013-08-27 23:27:00,
2013-08-27 16:30:00,77.4,61.9,29.65,WNW,292,0.0,1.3,59,0.00,,,0.04,VWS V14.01,2013-08-27 23:30:00,
2013-08-27 16:31:00,77.4,61.9,29.65,WNW,292,0.0,1.3,59,0.00,,,0.04,VWS V14.01,2013-08-27 23:31:00,
2013-08-27 16:32:00,77.4,61.9,29.65,WNW,292,0.0,1.3,59,0.00,,,0.04,VWS V14.01,2013-08-27 23:32:00,
2013-08-27 16:35:00,77.2,62.2,29.65,West,270,0.0,1.3,60,0.00,,,0.04,VWS V14.01,2013-08-27 23:35:00,
2013-08-27 16:36:00,77.2,62.2,29.65,WNW,292,0.0,1.3,60,0.00,,,0.04,VWS V14.01,2013-08-27 23:36:00,
2013-08-27 16:37:00,77.2,62.2,29.65,WSW,248,0.0,1.3,60,0.00,,,0.04,VWS V14.01,2013-08-27 23:37:00,
2013-08-27 16:40:00,77.0,62.1,29.65,WNW,292,0.0,1.3,60,0.00,,,0.04,VWS V14.01,2013-08-27 23:40:00,
2013-08-27 16:41:00,77.0,62.1,29.65,WSW,248,0.0,1.3,60,0.00,,,0.04,VWS V14.01,2013-08-27 23:41:00,
2013-08-27 16:42:00,77.0,62.1,29.65,WSW,248,0.0,1.3,60,0.00,,,0.04,VWS V14.01,2013-08-27 23:42:00,
2013-08-27 16:45:00,77.0,62.1,29.65,WNW,292,0.0,1.6,60,0.00,,,0.04,VWS V14.01,2013-08-27 23:45:00,
2013-08-27 16:46:00,77.0,62.1,29.65,WNW,292,1.1,1.6,60,0.00,,,0.04,VWS V14.01,2013-08-27 23:46:00,
2013-08-27 16:47:00,77.0,62.1,29.65,WNW,292,0.0,1.6,60,0.00,,,0.04,VWS V14.01,2013-08-27 23:47:00,
2013-08-27 16:50:00,76.8,62.4,29.65,SW,225,2.0,2.0,61,0.00,,,0.04,VWS V14.01,2013-08-27 23:50:00,
2013-08-27 16:51:00,76.8,62.4,29.65,SW,225,2.0,2.0,61,0.00,,,0.04,VWS V14.01,2013-08-27 23:51:00,
2013-08-27 16:52:00,76.8,61.9,29.65,WNW,292,2.5,2.5,60,0.00,,,0.04,VWS V14.01,2013-08-27 23:52:00,
2013-08-27 16:55:00,76.6,62.2,29.65,NNE,22,1.6,2.5,61,0.00,,,0.04,VWS V14.01,2013-08-27 23:55:00,
2013-08-27 16:56:00,76.6,62.2,29.65,WNW,292,0.0,2.5,61,0.00,,,0.04,VWS V14.01,2013-08-27 23:56:00,
2013-08-27 16:57:00,76.6,62.2,29.65,WNW,292,1.1,2.5,61,0.00,,,0.04,VWS V14.01,2013-08-27 23:57:00,
2013-08-27 17:00:00,76.5,62.0,29.65,WSW,248,2.0,2.7,61,0.00,,,0.04,VWS V14.01,2013-08-28 00:00:00,
2013-08-27 17:01:00,76.5,62.0,29.65,WNW,292,0.0,2.7,61,0.00,,,0.04,VWS V14.01,2013-08-28 00:01:00,
2013-08-27 17:02:00,76.5,62.0,29.62,WNW,292,0.9,2.7,61,0.00,,,0.04,VWS V14.01,2013-08-28 00:02:00,
2013-08-27 17:05:00,76.5,62.0,29.62,WNW,292,1.1,2.7,61,0.00,,,0.04,VWS V14.01,2013-08-28 00:05:00,
2013-08-27 17:06:00,76.5,62.0,29.62,WNW,292,1.1,2.7,61,0.00,,,0.04,VWS V14.01,2013-08-28 00:06:00,
2013-08-27 17:07:00,76.5,62.0,29.62,ESE,112,1.3,2.7,61,0.00,,,0.04,VWS V14.01,2013-08-28 00:07:00,
2013-08-27 17:10:00,76.3,62.3,29.62,NE,45,1.6,2.7,62,0.00,,,0.04,VWS V14.01,2013-08-28 00:10:00,
2013-08-27 17:11:00,76.5,62.5,29.62,WNW,292,1.1,2.7,62,0.00,,,0.04,VWS V14.01,2013-08-28 00:11:00,
2013-08-27 17:12:00,76.5,62.5,29.62,NW,315,2.2,2.7,62,0.00,,,0.04,VWS V14.01,2013-08-28 00:12:00,
2013-08-27 17:13:00,76.5,62.5,29.62,NW,315,2.2,2.7,62,0.00,,,0.04,VWS V14.01,2013-08-28 00:13:00,
2013-08-27 17:16:00,76.5,62.5,29.62,WNW,292,0.0,2.2,62,0.00,,,0.04,VWS V14.01,2013-08-28 00:16:00,
2013-08-27 17:17:00,76.3,62.3,29.62,NE,45,0.0,2.2,62,0.00,,,0.04,VWS V14.01,2013-08-28 00:17:00,
2013-08-27 17:18:00,76.3,62.3,29.62,WNW,292,0.9,2.2,62,0.00,,,0.04,VWS V14.01,2013-08-28 00:18:00,
2013-08-27 17:21:00,76.5,62.5,29.62,ENE,68,2.7,2.7,62,0.00,,,0.04,VWS V14.01,2013-08-28 00:21:00,
2013-08-27 17:22:00,76.3,62.3,29.62,WNW,292,1.6,2.7,62,0.00,,,0.04,VWS V14.01,2013-08-28 00:22:00,
2013-08-27 17:23:00,76.3,62.3,29.62,SSW,202,2.7,2.7,62,0.00,,,0.04,VWS V14.01,2013-08-28 00:23:00,
2013-08-27 17:26:00,76.1,62.2,29.62,WNW,292,0.0,2.7,62,0.00,,,0.04,VWS V14.01,2013-08-28 00:26:00,
2013-08-27 17:27:00,76.1,62.2,29.62,ENE,68,0.0,2.7,62,0.00,,,0.04,VWS V14.01,2013-08-28 00:27:00,
2013-08-27 17:28:00,76.1,62.2,29.62,WSW,248,3.1,3.1,62,0.00,,,0.04,VWS V14.01,2013-08-28 00:28:00,
2013-08-27 17:31:00,75.9,62.0,29.62,WSW,248,0.0,3.1,62,0.00,,,0.04,VWS V14.01,2013-08-28 00:31:00,
2013-08-27 17:32:00,75.9,62.0,29.62,NNE,22,0.0,3.1,62,0.00,,,0.04,VWS V14.01,2013-08-28 00:32:00,
2013-08-27 17:33:00,75.9,62.4,29.62,NE,45,0.0,3.1,63,0.00,,,0.04,VWS V14.01,2013-08-28 00:33:00,
2013-08-27 17:36:00,75.6,62.1,29.62,ENE,68,1.6,3.1,63,0.00,,,0.04,VWS V14.01,2013-08-28 00:36:00,
2013-08-27 17:37:00,75.6,62.1,29.62,WNW,292,1.1,3.1,63,0.00,,,0.04,VWS V14.01,2013-08-28 00:37:00,
2013-08-27 17:38:00,75.6,62.1,29.62,WNW,292,0.0,3.1,63,0.00,,,0.04,VWS V14.01,2013-08-28 00:38:00,
2013-08-27 17:41:00,75.6,62.1,29.62,NE,45,0.0,3.1,63,0.00,,,0.04,VWS V14.01,2013-08-28 00:41:00,
2013-08-27 17:42:00,75.6,62.1,29.62,NW,315,1.6,3.1,63,0.00,,,0.04,VWS V14.01,2013-08-28 00:42:00,
2013-08-27 17:43:00,75.6,62.1,29.62,WSW,248,1.3,3.1,63,0.00,,,0.04,VWS V14.01,2013-08-28 00:43:00,
2013-08-27 17:46:00,75.4,61.9,29.62,WNW,292,2.7,2.7,63,0.00,,,0.04,VWS V14.01,2013-08-28 00:46:00,
2013-08-27 17:47:00,75.0,61.6,29.65,East,90,0.9,2.7,63,0.00,,,0.04,VWS V14.01,2013-08-28 00:47:00,
2013-08-27 17:48:00,75.0,61.6,29.65,East,90,0.9,2.7,63,0.00,,,0.04,VWS V14.01,2013-08-28 00:48:00,
2013-08-27 17:51:00,75.0,62.0,29.65,NE,45,0.0,2.7,64,0.00,,,0.04,VWS V14.01,2013-08-28 00:51:00,
2013-08-27 17:52:00,75.2,62.2,29.65,NNW,338,0.0,2.7,64,0.00,,,0.04,VWS V14.01,2013-08-28 00:52:00,
2013-08-27 17:53:00,75.2,62.2,29.65,NNW,338,0.0,2.7,64,0.00,,,0.04,VWS V14.01,2013-08-28 00:53:00,
2013-08-27 17:56:00,75.0,62.0,29.65,NNW,338,0.0,2.7,64,0.00,,,0.04,VWS V14.01,2013-08-28 00:56:00,
2013-08-27 17:57:00,75.0,62.0,29.65,NE,45,0.0,2.7,64,0.00,,,0.04,VWS V14.01,2013-08-28 00:57:00,
2013-08-27 17:58:00,75.0,62.0,29.65,NE,45,0.0,2.7,64,0.00,,,0.04,VWS V14.01,2013-08-28 00:58:00,
2013-08-27 18:01:00,74.8,61.9,29.65,WNW,292,0.0,2.7,64,0.00,,,0.04,VWS V14.01,2013-08-28 01:01:00,
2013-08-27 18:02:00,74.7,61.7,29.65,NE,45,0.9,1.6,64,0.00,,,0.04,VWS V14.01,2013-08-28 01:02:00,
2013-08-27 18:03:00,74.7,61.7,29.65,NE,45,0.9,1.6,64,0.00,,,0.04,VWS V14.01,2013-08-28 01:03:00,
2013-08-27 18:06:00,74.3,61.3,29.65,WNW,292,0.0,4.9,64,0.00,,,0.04,VWS V14.01,2013-08-28 01:06:00,
2013-08-27 18:07:00,74.1,61.2,29.65,ENE,68,0.0,4.9,64,0.00,,,0.04,VWS V14.01,2013-08-28 01:07:00,
2013-08-27 18:08:00,74.1,61.2,29.65,WNW,292,1.3,4.9,64,0.00,,,0.04,VWS V14.01,2013-08-28 01:08:00,
2013-08-27 18:11:00,74.1,61.6,29.65,WNW,292,0.0,4.9,65,0.00,,,0.04,VWS V14.01,2013-08-28 01:11:00,
2013-08-27 18:12:00,74.1,61.6,29.65,WNW,292,0.0,4.9,65,0.00,,,0.04,VWS V14.01,2013-08-28 01:12:00,
2013-08-27 18:13:00,73.9,61.4,29.65,WNW,292,0.0,4.9,65,0.00,,,0.04,VWS V14.01,2013-08-28 01:13:00,
2013-08-27 18:14:00,73.9,61.4,29.65,SE,135,0.0,4.9,65,0.00,,,0.04,VWS V14.01,2013-08-28 01:14:00,
2013-08-27 18:16:00,73.9,61.4,29.65,WNW,292,0.0,4.9,65,0.00,,,0.04,VWS V14.01,2013-08-28 01:16:00,
2013-08-27 18:17:00,73.8,61.3,29.65,NNE,22,0.0,4.9,65,0.00,,,0.04,VWS V14.01,2013-08-28 01:17:00,
2013-08-27 18:18:00,73.8,61.3,29.65,North,0,0.0,4.9,65,0.00,,,0.04,VWS V14.01,2013-08-28 01:18:00,
2013-08-27 18:19:00,73.6,61.1,29.65,NNE,22,0.0,4.9,65,0.00,,,0.04,VWS V14.01,2013-08-28 01:19:00,
2013-08-27 18:21:00,73.4,60.9,29.65,WNW,292,1.3,2.2,65,0.00,,,0.04,VWS V14.01,2013-08-28 01:21:00,
2013-08-27 18:22:00,73.4,61.4,29.65,NNW,338,0.0,2.2,66,0.00,,,0.04,VWS V14.01,2013-08-28 01:22:00,
2013-08-27 18:23:00,73.4,61.4,29.65,SSE,158,0.0,2.2,66,0.00,,,0.04,VWS V14.01,2013-08-28 01:23:00,
2013-08-27 18:24:00,73.2,61.2,29.65,NNE,22,0.0,2.2,66,0.00,,,0.04,VWS V14.01,2013-08-28 01:24:00,
2013-08-27 18:26:00,73.2,61.2,29.65,ESE,112,1.1,2.2,66,0.00,,,0.04,VWS V14.01,2013-08-28 01:26:00,
2013-08-27 18:28:00,73.0,61.0,29.65,WNW,292,1.1,2.2,66,0.00,,,0.04,VWS V14.01,2013-08-28 01:28:00,
2013-08-27 18:29:00,73.0,61.0,29.65,WNW,292,1.1,2.2,66,0.00,,,0.04,VWS V14.01,2013-08-28 01:29:00,
2013-08-27 18:31:00,73.0,61.0,29.65,WSW,248,0.0,2.2,66,0.00,,,0.04,VWS V14.01,2013-08-28 01:31:00,
2013-08-27 18:33:00,72.9,60.8,29.65,NW,315,0.0,1.3,66,0.00,,,0.04,VWS V14.01,2013-08-28 01:33:00,
2013-08-27 18:34:00,72.9,61.3,29.65,NNW,338,0.0,1.3,67,0.00,,,0.04,VWS V14.01,2013-08-28 01:34:00,
2013-08-27 18:36:00,72.7,61.1,29.65,NW,315,0.0,1.3,67,0.00,,,0.04,VWS V14.01,2013-08-28 01:36:00,
2013-08-27 18:37:00,72.7,61.1,29.65,NNW,338,0.0,1.3,67,0.00,,,0.04,VWS V14.01,2013-08-28 01:37:00,
2013-08-27 18:38:00,72.7,61.1,29.65,ENE,68,0.0,1.3,67,0.00,,,0.04,VWS V14.01,2013-08-28 01:38:00,
2013-08-27 18:39:00,72.7,61.1,29.65,ENE,68,0.0,1.3,67,0.00,,,0.04,VWS V14.01,2013-08-28 01:39:00,
2013-08-27 18:41:00,72.5,60.9,29.65,WNW,292,0.0,1.3,67,0.00,,,0.04,VWS V14.01,2013-08-28 01:41:00,
2013-08-27 18:43:00,72.5,60.9,29.65,NE,45,0.0,1.3,67,0.00,,,0.04,VWS V14.01,2013-08-28 01:43:00,
2013-08-27 18:44:00,72.5,60.9,29.65,NE,45,0.0,1.3,67,0.00,,,0.04,VWS V14.01,2013-08-28 01:44:00,
2013-08-27 18:46:00,72.5,60.9,29.65,NE,45,0.0,1.3,67,0.00,,,0.04,VWS V14.01,2013-08-28 01:46:00,
2013-08-27 18:48:00,72.5,60.9,29.65,North,0,0.0,1.3,67,0.00,,,0.04,VWS V14.01,2013-08-28 01:48:00,
2013-08-27 18:49:00,72.3,60.8,29.65,WNW,292,0.0,1.3,67,0.00,,,0.04,VWS V14.01,2013-08-28 01:49:00,
2013-08-27 18:52:00,72.1,60.6,29.65,North,0,0.0,2.2,67,0.00,,,0.04,VWS V14.01,2013-08-28 01:52:00,
2013-08-27 18:53:00,72.1,60.6,29.65,NNE,22,0.0,2.2,67,0.00,,,0.04,VWS V14.01,2013-08-28 01:53:00,
2013-08-27 18:54:00,72.1,60.6,29.65,NNE,22,0.0,2.2,67,0.00,,,0.04,VWS V14.01,2013-08-28 01:54:00,
2013-08-27 18:57:00,72.0,60.4,29.65,WNW,292,0.0,2.2,67,0.00,,,0.04,VWS V14.01,2013-08-28 01:57:00,
2013-08-27 18:58:00,72.0,60.4,29.65,WNW,292,0.0,2.2,67,0.00,,,0.04,VWS V14.01,2013-08-28 01:58:00,
2013-08-27 18:59:00,72.0,60.4,29.65,WNW,292,0.0,2.2,67,0.00,,,0.04,VWS V14.01,2013-08-28 01:59:00,
2013-08-27 19:02:00,71.8,60.2,29.65,NW,315,0.0,2.2,67,0.00,,,0.04,VWS V14.01,2013-08-28 02:02:00,
2013-08-27 19:03:00,71.6,60.5,29.65,NW,315,0.0,2.2,68,0.00,,,0.04,VWS V14.01,2013-08-28 02:03:00,
2013-08-27 19:04:00,71.6,60.5,29.65,SW,225,0.0,2.2,68,0.00,,,0.04,VWS V14.01,2013-08-28 02:04:00,
2013-08-27 19:07:00,71.4,60.7,29.65,WNW,292,1.1,1.3,69,0.00,,,0.04,VWS V14.01,2013-08-28 02:07:00,
2013-08-27 19:08:00,71.4,60.7,29.65,WNW,292,0.0,1.3,69,0.00,,,0.04,VWS V14.01,2013-08-28 02:08:00,
2013-08-27 19:09:00,71.4,60.7,29.65,WNW,292,0.0,1.3,69,0.00,,,0.04,VWS V14.01,2013-08-28 02:09:00,
2013-08-27 19:12:00,71.4,60.7,29.65,WSW,248,1.1,1.1,69,0.00,,,0.04,VWS V14.01,2013-08-28 02:12:00,
2013-08-27 19:13:00,71.4,60.7,29.65,NNE,22,0.0,1.1,69,0.00,,,0.04,VWS V14.01,2013-08-28 02:13:00,
2013-08-27 19:14:00,71.1,60.8,29.65,NNW,338,0.0,1.1,70,0.00,,,0.04,VWS V14.01,2013-08-28 02:14:00,
2013-08-27 19:17:00,70.9,60.6,29.65,NNW,338,0.0,1.3,70,0.00,,,0.04,VWS V14.01,2013-08-28 02:17:00,
2013-08-27 19:18:00,70.9,60.6,29.65,NNE,22,0.0,1.3,70,0.00,,,0.04,VWS V14.01,2013-08-28 02:18:00,
2013-08-27 19:19:00,70.9,60.6,29.65,NNE,22,0.0,1.3,70,0.00,,,0.04,VWS V14.01,2013-08-28 02:19:00,
2013-08-27 19:23:00,70.7,60.5,29.65,West,270,0.0,1.3,70,0.00,,,0.04,VWS V14.01,2013-08-28 02:23:00,
2013-08-27 19:24:00,70.5,60.3,29.65,WNW,292,0.0,1.3,70,0.00,,,0.04,VWS V14.01,2013-08-28 02:24:00,
2013-08-27 19:28:00,70.5,60.3,29.65,WNW,292,0.0,1.3,70,0.00,,,0.04,VWS V14.01,2013-08-28 02:28:00,
2013-08-27 19:29:00,70.3,60.5,29.65,WNW,292,0.0,1.3,71,0.00,,,0.04,VWS V14.01,2013-08-28 02:29:00,
2013-08-27 19:33:00,70.2,60.3,29.68,WNW,292,0.0,0.9,71,0.00,,,0.04,VWS V14.01,2013-08-28 02:33:00,
2013-08-27 19:34:00,70.2,60.3,29.68,WNW,292,0.0,0.9,71,0.00,,,0.04,VWS V14.01,2013-08-28 02:34:00,
2013-08-27 19:35:00,70.0,60.2,29.68,WNW,292,0.0,0.9,71,0.00,,,0.04,VWS V14.01,2013-08-28 02:35:00,
2013-08-27 19:38:00,69.8,60.0,29.68,SSE,158,0.0,2.0,71,0.00,,,0.04,VWS V14.01,2013-08-28 02:38:00,
2013-08-27 19:39:00,69.8,60.0,29.68,SSE,158,0.9,2.0,71,0.00,,,0.04,VWS V14.01,2013-08-28 02:39:00,
2013-08-27 19:40:00,69.6,60.2,29.68,West,270,0.0,2.0,72,0.00,,,0.04,VWS V14.01,2013-08-28 02:40:00,
2013-08-27 19:43:00,69.8,60.0,29.68,SSE,158,0.0,2.0,71,0.00,,,0.04,VWS V14.01,2013-08-28 02:43:00,
2013-08-27 19:44:00,69.8,60.0,29.68,ENE,68,0.0,2.0,71,0.00,,,0.04,VWS V14.01,2013-08-28 02:44:00,
2013-08-27 19:45:00,69.8,60.0,29.68,NNW,338,0.0,2.0,71,0.00,,,0.04,VWS V14.01,2013-08-28 02:45:00,
2013-08-27 19:48:00,69.8,60.0,29.68,SW,225,0.0,2.0,71,0.00,,,0.04,VWS V14.01,2013-08-28 02:48:00,
2013-08-27 19:49:00,69.8,60.0,29.68,ESE,112,0.0,2.0,71,0.00,,,0.04,VWS V14.01,2013-08-28 02:49:00,
2013-08-27 19:50:00,69.8,60.0,29.68,West,270,0.0,2.0,71,0.00,,,0.04,VWS V14.01,2013-08-28 02:50:00,
2013-08-27 19:53:00,69.4,60.0,29.68,West,270,0.0,0.9,72,0.00,,,0.04,VWS V14.01,2013-08-28 02:53:00,
2013-08-27 19:54:00,69.3,59.9,29.68,WNW,292,0.0,0.9,72,0.00,,,0.04,VWS V14.01,2013-08-28 02:54:00,
2013-08-27 19:55:00,69.3,59.9,29.68,WNW,292,0.0,0.9,72,0.00,,,0.04,VWS V14.01,2013-08-28 02:55:00,
2013-08-27 19:58:00,69.1,60.1,29.68,WSW,248,0.0,0.0,73,0.00,,,0.04,VWS V14.01,2013-08-28 02:58:00,
2013-08-27 19:59:00,68.9,59.9,29.68,NE,45,0.0,0.0,73,0.00,,,0.04,VWS V14.01,2013-08-28 02:59:00,
2013-08-27 20:00:00,68.9,59.9,29.68,NNW,338,0.0,0.0,73,0.00,,,0.04,VWS V14.01,2013-08-28 03:00:00,
2013-08-27 20:03:00,68.7,59.7,29.68,NW,315,0.0,0.0,73,0.00,,,0.04,VWS V14.01,2013-08-28 03:03:00,
2013-08-27 20:04:00,68.5,59.9,29.68,WSW,248,0.0,0.0,74,0.00,,,0.04,VWS V14.01,2013-08-28 03:04:00,
2013-08-27 20:05:00,68.5,59.9,29.68,WSW,248,0.0,0.0,74,0.00,,,0.04,VWS V14.01,2013-08-28 03:05:00,
2013-08-27 20:08:00,68.5,59.9,29.68,WNW,292,0.0,0.0,74,0.00,,,0.04,VWS V14.01,2013-08-28 03:08:00,
2013-08-27 20:09:00,68.5,59.9,29.68,WNW,292,0.0,0.0,74,0.00,,,0.04,VWS V14.01,2013-08-28 03:09:00,
2013-08-27 20:10:00,68.5,59.9,29.68,WNW,292,0.0,0.0,74,0.00,,,0.04,VWS V14.01,2013-08-28 03:10:00,
2013-08-27 20:11:00,68.5,59.9,29.68,WNW,292,0.0,0.0,74,0.00,,,0.04,VWS V14.01,2013-08-28 03:11:00,
2013-08-27 20:13:00,68.2,59.6,29.68,West,270,0.0,0.0,74,0.00,,,0.04,VWS V14.01,2013-08-28 03:13:00,
2013-08-27 20:14:00,68.2,59.6,29.68,WSW,248,0.0,0.0,74,0.00,,,0.04,VWS V14.01,2013-08-28 03:14:00,
2013-08-27 20:15:00,68.0,59.4,29.68,WSW,248,0.0,0.0,74,0.00,,,0.04,VWS V14.01,2013-08-28 03:15:00,
2013-08-27 20:16:00,68.0,59.4,29.68,WSW,248,0.0,0.0,74,0.00,,,0.04,VWS V14.01,2013-08-28 03:16:00,
2013-08-27 20:18:00,67.8,59.6,29.65,WNW,292,0.0,0.0,75,0.00,,,0.04,VWS V14.01,2013-08-28 03:18:00,
2013-08-27 20:19:00,67.8,59.6,29.65,SE,135,0.0,0.0,75,0.00,,,0.04,VWS V14.01,2013-08-28 03:19:00,
2013-08-27 20:20:00,67.8,59.6,29.65,West,270,0.0,0.0,75,0.00,,,0.04,VWS V14.01,2013-08-28 03:20:00,
2013-08-27 20:21:00,67.8,59.6,29.65,WNW,292,0.0,0.0,75,0.00,,,0.04,VWS V14.01,2013-08-28 03:21:00,
2013-08-27 20:23:00,67.6,59.8,29.65,SE,135,0.0,0.0,76,0.00,,,0.04,VWS V14.01,2013-08-28 03:23:00,
2013-08-27 20:24:00,67.6,59.8,29.65,SE,135,0.0,0.0,76,0.00,,,0.04,VWS V14.01,2013-08-28 03:24:00,
2013-08-27 20:25:00,67.6,59.8,29.65,ESE,112,0.0,0.0,76,0.00,,,0.04,VWS V14.01,2013-08-28 03:25:00,
2013-08-27 20:26:00,67.6,59.8,29.65,ESE,112,0.0,0.0,76,0.00,,,0.04,VWS V14.01,2013-08-28 03:26:00,
2013-08-27 20:29:00,67.5,59.6,29.65,West,270,0.0,0.0,76,0.00,,,0.04,VWS V14.01,2013-08-28 03:29:00,
2013-08-27 20:30:00,67.5,59.6,29.65,WNW,292,0.0,0.0,76,0.00,,,0.04,VWS V14.01,2013-08-28 03:30:00,
2013-08-27 20:31:00,67.5,59.6,29.65,WNW,292,0.0,0.0,76,0.00,,,0.04,VWS V14.01,2013-08-28 03:31:00,
2013-08-27 20:34:00,67.3,59.1,29.68,East,90,0.9,0.9,75,0.00,,,0.04,VWS V14.01,2013-08-28 03:34:00,
2013-08-27 20:35:00,67.3,59.1,29.68,NNE,22,0.0,0.9,75,0.00,,,0.04,VWS V14.01,2013-08-28 03:35:00,
2013-08-27 20:36:00,67.1,59.3,29.68,NNE,22,0.0,0.9,76,0.00,,,0.04,VWS V14.01,2013-08-28 03:36:00,
2013-08-27 20:39:00,67.3,59.5,29.68,East,90,0.9,0.9,76,0.00,,,0.04,VWS V14.01,2013-08-28 03:39:00,
2013-08-27 20:40:00,67.1,59.3,29.68,East,90,0.9,0.9,76,0.00,,,0.04,VWS V14.01,2013-08-28 03:40:00,
2013-08-27 20:41:00,67.1,59.3,29.68,ENE,68,0.0,0.9,76,0.00,,,0.04,VWS V14.01,2013-08-28 03:41:00,
2013-08-27 20:44:00,66.9,58.8,29.68,East,90,1.3,1.3,75,0.00,,,0.04,VWS V14.01,2013-08-28 03:44:00,
2013-08-27 20:45:00,66.9,58.8,29.68,SSE,158,0.0,1.3,75,0.00,,,0.04,VWS V14.01,2013-08-28 03:45:00,
2013-08-27 20:46:00,66.9,58.8,29.68,ESE,112,2.5,2.5,75,0.00,,,0.04,VWS V14.01,2013-08-28 03:46:00,
2013-08-27 20:49:00,66.7,58.9,29.68,East,90,0.0,2.5,76,0.00,,,0.04,VWS V14.01,2013-08-28 03:49:00,
2013-08-27 20:50:00,66.7,58.9,29.68,NNW,338,0.0,2.5,76,0.00,,,0.04,VWS V14.01,2013-08-28 03:50:00,
2013-08-27 20:51:00,66.7,58.9,29.68,WNW,292,0.0,2.5,76,0.00,,,0.04,VWS V14.01,2013-08-28 03:51:00,
2013-08-27 20:54:00,66.6,58.8,29.68,WNW,292,1.1,2.5,76,0.00,,,0.04,VWS V14.01,2013-08-28 03:54:00,
2013-08-27 20:55:00,66.6,58.8,29.68,West,270,0.0,2.5,76,0.00,,,0.04,VWS V14.01,2013-08-28 03:55:00,
2013-08-27 20:56:00,66.6,58.8,29.68,WSW,248,1.6,2.5,76,0.00,,,0.04,VWS V14.01,2013-08-28 03:56:00,
2013-08-27 21:00:00,66.4,58.6,29.68,WNW,292,0.0,2.5,76,0.00,,,0.04,VWS V14.01,2013-08-28 04:00:00,
2013-08-27 21:01:00,66.4,58.6,29.68,WNW,292,0.0,2.0,76,0.00,,,0.04,VWS V14.01,2013-08-28 04:01:00,
2013-08-27 21:06:00,66.4,59.0,29.68,East,90,0.0,1.6,77,0.00,,,0.04,VWS V14.01,2013-08-28 04:06:00,
2013-08-27 21:07:00,66.4,58.6,29.68,NNE,22,0.0,1.6,76,0.00,,,0.04,VWS V14.01,2013-08-28 04:07:00,
2013-08-27 21:11:00,66.4,58.6,29.68,ENE,68,0.0,1.6,76,0.00,,,0.04,VWS V14.01,2013-08-28 04:11:00,
2013-08-27 21:13:00,66.4,58.6,29.68,ENE,68,0.0,1.6,76,0.00,,,0.04,VWS V14.01,2013-08-28 04:13:00,
2013-08-27 21:14:00,66.4,58.6,29.68,East,90,0.0,0.9,76,0.00,,,0.00,VWS V14.01,2013-08-28 04:14:00,
2013-08-27 21:16:00,66.4,58.6,29.68,East,90,0.0,0.9,76,0.00,,,0.04,VWS V14.01,2013-08-28 04:16:00,
2013-08-27 21:17:00,66.4,58.6,29.68,East,90,0.0,0.9,76,0.00,,,0.04,VWS V14.01,2013-08-28 04:17:00,
2013-08-27 21:18:00,66.4,58.6,29.68,East,90,0.0,0.9,76,0.00,,,0.04,VWS V14.01,2013-08-28 04:18:00,
2013-08-27 21:19:00,66.4,58.6,29.68,East,90,0.0,0.0,76,0.00,,,0.04,VWS V14.01,2013-08-28 04:19:00,
2013-08-27 21:21:00,66.4,58.6,29.68,East,90,0.0,0.0,76,0.00,,,0.04,VWS V14.01,2013-08-28 04:21:00,
2013-08-27 21:22:00,66.2,58.8,29.68,East,90,0.0,0.0,77,0.00,,,0.04,VWS V14.01,2013-08-28 04:22:00,
2013-08-27 21:23:00,66.2,58.8,29.68,East,90,0.0,0.0,77,0.00,,,0.04,VWS V14.01,2013-08-28 04:23:00,
2013-08-27 21:25:00,66.2,58.8,29.68,East,90,0.0,0.0,77,0.00,,,0.04,VWS V14.01,2013-08-28 04:25:00,
2013-08-27 21:26:00,66.2,58.8,29.68,East,90,0.0,0.0,77,0.00,,,0.04,VWS V14.01,2013-08-28 04:26:00,
2013-08-27 21:27:00,66.0,58.6,29.68,East,90,0.0,0.0,77,0.00,,,0.04,VWS V14.01,2013-08-28 04:27:00,
2013-08-27 21:28:00,66.0,58.6,29.68,East,90,0.0,0.0,77,0.00,,,0.04,VWS V14.01,2013-08-28 04:28:00,
2013-08-27 21:29:00,66.0,58.6,29.68,East,90,0.0,0.0,77,0.00,,,0.04,VWS V14.01,2013-08-28 04:29:00,
2013-08-27 21:31:00,66.0,58.6,29.68,East,90,0.0,0.0,77,0.00,,,0.04,VWS V14.01,2013-08-28 04:31:00,
2013-08-27 21:33:00,66.0,59.0,29.68,East,90,0.0,0.0,78,0.00,,,0.04,VWS V14.01,2013-08-28 04:33:00,
2013-08-27 21:34:00,66.0,59.0,29.68,East,90,0.0,0.0,78,0.00,,,0.04,VWS V14.01,2013-08-28 04:34:00,
2013-08-27 21:35:00,66.0,59.0,29.68,East,90,0.0,0.0,78,0.00,,,0.04,VWS V14.01,2013-08-28 04:35:00,
2013-08-27 21:36:00,66.0,59.0,29.68,East,90,0.0,0.0,78,0.00,,,0.04,VWS V14.01,2013-08-28 04:36:00,
2013-08-27 21:37:00,66.0,59.0,29.68,East,90,0.0,0.0,78,0.00,,,0.04,VWS V14.01,2013-08-28 04:37:00,
2013-08-27 21:38:00,66.0,59.0,29.68,East,90,0.0,0.0,78,0.00,,,0.04,VWS V14.01,2013-08-28 04:38:00,
2013-08-27 21:39:00,66.0,59.0,29.68,East,90,0.0,0.0,78,0.00,,,0.04,VWS V14.01,2013-08-28 04:39:00,
2013-08-27 21:40:00,65.8,58.8,29.68,East,90,0.0,0.0,78,0.00,,,0.04,VWS V14.01,2013-08-28 04:40:00,
2013-08-27 21:41:00,65.8,58.8,29.68,East,90,0.0,0.0,78,0.00,,,0.04,VWS V14.01,2013-08-28 04:41:00,
2013-08-27 21:42:00,65.8,58.8,29.68,East,90,0.0,0.0,78,0.00,,,0.04,VWS V14.01,2013-08-28 04:42:00,
2013-08-27 21:43:00,65.8,58.8,29.68,East,90,0.0,0.0,78,0.00,,,0.04,VWS V14.01,2013-08-28 04:43:00,
2013-08-27 21:44:00,65.8,58.8,29.68,East,90,0.0,0.0,78,0.00,,,0.04,VWS V14.01,2013-08-28 04:44:00,
2013-08-27 21:45:00,65.8,58.8,29.68,East,90,0.0,0.0,78,0.00,,,0.04,VWS V14.01,2013-08-28 04:45:00,
2013-08-27 21:47:00,65.8,58.8,29.68,East,90,0.0,0.0,78,0.00,,,0.04,VWS V14.01,2013-08-28 04:47:00,
2013-08-27 21:48:00,65.8,58.8,29.68,East,90,0.0,0.0,78,0.00,,,0.04,VWS V14.01,2013-08-28 04:48:00,
2013-08-27 21:49:00,65.7,58.6,29.68,East,90,0.0,0.0,78,0.00,,,0.04,VWS V14.01,2013-08-28 04:49:00,
2013-08-27 21:50:00,65.7,58.6,29.68,East,90,0.0,0.0,78,0.00,,,0.04,VWS V14.01,2013-08-28 04:50:00,
2013-08-27 21:52:00,65.8,58.8,29.68,East,90,0.0,0.0,78,0.00,,,0.04,VWS V14.01,2013-08-28 04:52:00,
2013-08-27 21:53:00,65.8,59.2,29.68,East,90,0.0,0.0,79,0.00,,,0.04,VWS V14.01,2013-08-28 04:53:00,
2013-08-27 21:55:00,65.8,59.2,29.68,East,90,0.0,0.0,79,0.00,,,0.04,VWS V14.01,2013-08-28 04:55:00,
2013-08-27 21:57:00,65.8,59.2,29.68,East,90,0.0,0.0,79,0.00,,,0.04,VWS V14.01,2013-08-28 04:57:00,
2013-08-27 21:58:00,65.7,59.0,29.68,East,90,0.0,0.0,79,0.00,,,0.04,VWS V14.01,2013-08-28 04:58:00,
2013-08-27 22:00:00,65.7,59.0,29.68,East,90,0.0,0.0,79,0.00,,,0.04,VWS V14.01,2013-08-28 05:00:00,
2013-08-27 22:02:00,65.7,59.0,29.68,East,90,0.0,0.0,79,0.00,,,0.04,VWS V14.01,2013-08-28 05:02:00,
2013-08-27 22:03:00,65.7,59.0,29.68,East,90,0.0,0.0,79,0.00,,,0.04,VWS V14.01,2013-08-28 05:03:00,
2013-08-27 22:05:00,65.7,59.0,29.68,East,90,0.0,0.0,79,0.00,,,0.04,VWS V14.01,2013-08-28 05:05:00,
2013-08-27 22:07:00,65.5,58.8,29.68,East,90,0.0,0.0,79,0.00,,,0.04,VWS V14.01,2013-08-28 05:07:00,
2013-08-27 22:09:00,65.5,58.8,29.68,East,90,0.0,0.0,79,0.00,,,0.04,VWS V14.01,2013-08-28 05:09:00,
2013-08-27 22:10:00,65.5,58.8,29.68,East,90,0.0,0.0,79,0.00,,,0.04,VWS V14.01,2013-08-28 05:10:00,
2013-08-27 22:12:00,65.5,58.8,29.68,East,90,0.0,0.0,79,0.00,,,0.04,VWS V14.01,2013-08-28 05:12:00,
2013-08-27 22:14:00,65.5,58.8,29.68,ENE,68,0.0,0.0,79,0.00,,,0.04,VWS V14.01,2013-08-28 05:14:00,
2013-08-27 22:15:00,65.5,58.8,29.68,ENE,68,0.0,0.0,79,0.00,,,0.04,VWS V14.01,2013-08-28 05:15:00,
2013-08-27 22:17:00,65.5,58.8,29.68,ENE,68,0.0,0.0,79,0.00,,,0.04,VWS V14.01,2013-08-28 05:17:00,
2013-08-27 22:19:00,65.5,58.8,29.68,ENE,68,0.0,0.0,79,0.00,,,0.04,VWS V14.01,2013-08-28 05:19:00,
2013-08-27 22:20:00,65.5,58.8,29.68,ENE,68,0.0,0.0,79,0.00,,,0.04,VWS V14.01,2013-08-28 05:20:00,
2013-08-27 22:21:00,65.5,58.8,29.68,ENE,68,0.0,0.0,79,0.00,,,0.04,VWS V14.01,2013-08-28 05:21:00,
2013-08-27 22:22:00,65.5,58.8,29.68,ENE,68,0.0,0.0,79,0.00,,,0.04,VWS V14.01,2013-08-28 05:22:00,
2013-08-27 22:24:00,65.5,58.8,29.68,ENE,68,0.0,0.0,79,0.00,,,0.04,VWS V14.01,2013-08-28 05:24:00,
2013-08-27 22:25:00,65.5,58.8,29.68,ENE,68,0.0,0.0,79,0.00,,,0.04,VWS V14.01,2013-08-28 05:25:00,
2013-08-27 22:26:00,65.5,58.8,29.68,ENE,68,0.0,0.0,79,0.00,,,0.04,VWS V14.01,2013-08-28 05:26:00,
2013-08-27 22:27:00,65.5,58.8,29.68,SW,225,0.0,0.0,79,0.00,,,0.04,VWS V14.01,2013-08-28 05:27:00,
2013-08-27 22:29:00,65.3,58.6,29.68,WSW,248,0.0,0.0,79,0.00,,,0.04,VWS V14.01,2013-08-28 05:29:00,
2013-08-27 22:30:00,65.3,58.6,29.68,WSW,248,0.0,0.0,79,0.00,,,0.04,VWS V14.01,2013-08-28 05:30:00,
2013-08-27 22:31:00,65.3,59.0,29.68,WSW,248,0.0,0.0,80,0.00,,,0.04,VWS V14.01,2013-08-28 05:31:00,
2013-08-27 22:32:00,65.3,59.0,29.68,WSW,248,0.0,0.0,80,0.00,,,0.04,VWS V14.01,2013-08-28 05:32:00,
2013-08-27 22:35:00,65.3,59.0,29.68,WSW,248,0.0,0.0,80,0.00,,,0.04,VWS V14.01,2013-08-28 05:35:00,
2013-08-27 22:36:00,65.3,59.0,29.68,WSW,248,0.0,0.0,80,0.00,,,0.04,VWS V14.01,2013-08-28 05:36:00,
2013-08-27 22:37:00,65.3,59.0,29.68,WSW,248,0.0,0.0,80,0.00,,,0.04,VWS V14.01,2013-08-28 05:37:00,
2013-08-27 22:40:00,65.1,58.5,29.68,ESE,112,0.0,0.0,79,0.00,,,0.04,VWS V14.01,2013-08-28 05:40:00,
2013-08-27 22:41:00,65.1,58.5,29.68,ESE,112,0.0,0.0,79,0.00,,,0.04,VWS V14.01,2013-08-28 05:41:00,
2013-08-27 22:42:00,65.1,58.5,29.68,SSW,202,0.0,0.0,79,0.00,,,0.04,VWS V14.01,2013-08-28 05:42:00,
2013-08-27 22:45:00,64.9,58.6,29.68,WNW,292,0.0,0.0,80,0.00,,,0.04,VWS V14.01,2013-08-28 05:45:00,
2013-08-27 22:46:00,64.9,58.6,29.68,WNW,292,0.0,0.0,80,0.00,,,0.04,VWS V14.01,2013-08-28 05:46:00,
2013-08-27 22:47:00,64.9,58.6,29.68,East,90,0.0,0.0,80,0.00,,,0.04,VWS V14.01,2013-08-28 05:47:00,
2013-08-27 22:48:00,64.9,58.6,29.68,East,90,0.0,0.0,80,0.00,,,0.04,VWS V14.01,2013-08-28 05:48:00,
2013-08-27 22:50:00,64.9,58.3,29.68,SSW,202,0.0,0.0,79,0.00,,,0.04,VWS V14.01,2013-08-28 05:50:00,
2013-08-27 22:51:00,64.9,58.3,29.68,East,90,0.0,0.0,79,0.00,,,0.04,VWS V14.01,2013-08-28 05:51:00,
2013-08-27 22:52:00,64.8,58.5,29.68,East,90,0.0,0.0,80,0.00,,,0.04,VWS V14.01,2013-08-28 05:52:00,
2013-08-27 22:53:00,64.8,58.5,29.68,East,90,0.0,0.0,80,0.00,,,0.04,VWS V14.01,2013-08-28 05:53:00,
2013-08-27 22:55:00,64.9,58.6,29.68,South,180,0.0,0.0,80,0.00,,,0.04,VWS V14.01,2013-08-28 05:55:00,
2013-08-27 22:56:00,64.9,58.6,29.68,SSE,158,0.0,0.0,80,0.00,,,0.04,VWS V14.01,2013-08-28 05:56:00,
2013-08-27 22:57:00,64.9,58.6,29.68,SSE,158,0.0,0.0,80,0.00,,,0.04,VWS V14.01,2013-08-28 05:57:00,
2013-08-27 22:58:00,64.9,58.6,29.68,SSE,158,0.0,0.0,80,0.00,,,0.04,VWS V14.01,2013-08-28 05:58:00,
2013-08-27 23:00:00,64.9,58.6,29.68,SSW,202,0.0,0.9,80,0.00,,,0.04,VWS V14.01,2013-08-28 06:00:00,
2013-08-27 23:01:00,64.9,58.6,29.68,SW,225,0.0,0.9,80,0.00,,,0.04,VWS V14.01,2013-08-28 06:01:00,
2013-08-27 23:02:00,64.9,58.6,29.68,SSW,202,0.0,0.9,80,0.00,,,0.04,VWS V14.01,2013-08-28 06:02:00,
2013-08-27 23:03:00,64.9,58.6,29.68,WSW,248,0.0,0.9,80,0.00,,,0.04,VWS V14.01,2013-08-28 06:03:00,
2013-08-27 23:05:00,64.9,59.0,29.68,WSW,248,0.0,0.9,81,0.00,,,0.04,VWS V14.01,2013-08-28 06:05:00,
2013-08-27 23:06:00,64.9,59.0,29.68,WSW,248,0.0,0.9,81,0.00,,,0.04,VWS V14.01,2013-08-28 06:06:00,
2013-08-27 23:07:00,64.9,58.6,29.68,East,90,0.0,0.9,80,0.00,,,0.04,VWS V14.01,2013-08-28 06:07:00,
2013-08-27 23:08:00,64.9,58.6,29.68,East,90,0.0,0.9,80,0.00,,,0.04,VWS V14.01,2013-08-28 06:08:00,
2013-08-27 23:10:00,64.8,58.5,29.68,East,90,0.0,0.9,80,0.00,,,0.04,VWS V14.01,2013-08-28 06:10:00,
2013-08-27 23:11:00,64.8,58.5,29.68,NW,315,0.0,0.9,80,0.00,,,0.04,VWS V14.01,2013-08-28 06:11:00,
2013-08-27 23:12:00,64.8,58.5,29.68,NW,315,0.0,0.9,80,0.00,,,0.04,VWS V14.01,2013-08-28 06:12:00,
2013-08-27 23:13:00,64.8,58.5,29.68,NW,315,0.0,0.9,80,0.00,,,0.04,VWS V14.01,2013-08-28 06:13:00,
2013-08-27 23:14:00,64.8,58.5,29.68,NW,315,0.0,0.9,80,0.00,,,0.04,VWS V14.01,2013-08-28 06:14:00,
2013-08-27 23:15:00,64.8,58.5,29.68,NW,315,0.0,0.9,80,0.00,,,0.04,VWS V14.01,2013-08-28 06:15:00,
2013-08-27 23:16:00,64.8,58.5,29.68,NW,315,0.0,0.0,80,0.00,,,0.04,VWS V14.01,2013-08-28 06:16:00,
2013-08-27 23:17:00,64.8,58.5,29.68,NW,315,0.0,0.0,80,0.00,,,0.04,VWS V14.01,2013-08-28 06:17:00,
2013-08-27 23:18:00,64.8,58.5,29.68,NW,315,0.0,0.0,80,0.00,,,0.04,VWS V14.01,2013-08-28 06:18:00,
2013-08-27 23:19:00,64.8,58.5,29.68,NW,315,0.0,0.0,80,0.00,,,0.04,VWS V14.01,2013-08-28 06:19:00,
2013-08-27 23:20:00,64.8,58.5,29.68,NW,315,0.0,0.0,80,0.00,,,0.04,VWS V14.01,2013-08-28 06:20:00,
2013-08-27 23:21:00,64.8,58.5,29.68,NW,315,0.0,0.0,80,0.00,,,0.04,VWS V14.01,2013-08-28 06:21:00,
2013-08-27 23:22:00,64.8,58.5,29.68,NW,315,0.0,0.0,80,0.00,,,0.04,VWS V14.01,2013-08-28 06:22:00,
2013-08-27 23:23:00,64.8,58.5,29.68,WSW,248,0.0,0.0,80,0.00,,,0.04,VWS V14.01,2013-08-28 06:23:00,
2013-08-27 23:24:00,64.6,58.3,29.68,NNE,22,0.0,0.0,80,0.00,,,0.04,VWS V14.01,2013-08-28 06:24:00,
2013-08-27 23:25:00,64.6,58.3,29.68,NE,45,0.0,0.0,80,0.00,,,0.04,VWS V14.01,2013-08-28 06:25:00,
2013-08-27 23:26:00,64.6,58.3,29.68,NE,45,0.0,0.0,80,0.00,,,0.04,VWS V14.01,2013-08-28 06:26:00,
2013-08-27 23:27:00,64.6,58.3,29.68,NNW,338,0.0,0.0,80,0.00,,,0.04,VWS V14.01,2013-08-28 06:27:00,
2013-08-27 23:28:00,64.4,58.1,29.68,ESE,112,0.9,0.9,80,0.00,,,0.04,VWS V14.01,2013-08-28 06:28:00,
2013-08-27 23:29:00,64.4,58.1,29.68,East,90,0.0,0.9,80,0.00,,,0.04,VWS V14.01,2013-08-28 06:29:00,
2013-08-27 23:30:00,64.4,58.1,29.68,ESE,112,0.0,0.9,80,0.00,,,0.04,VWS V14.01,2013-08-28 06:30:00,
2013-08-27 23:32:00,64.4,58.1,29.68,SSE,158,0.0,0.9,80,0.00,,,0.04,VWS V14.01,2013-08-28 06:32:00,
2013-08-27 23:33:00,64.4,58.1,29.68,SSE,158,0.0,0.9,80,0.00,,,0.04,VWS V14.01,2013-08-28 06:33:00,
2013-08-27 23:35:00,64.4,58.1,29.68,SSE,158,0.0,0.9,80,0.00,,,0.04,VWS V14.01,2013-08-28 06:35:00,
2013-08-27 23:37:00,64.4,58.1,29.68,ESE,112,0.0,0.9,80,0.00,,,0.04,VWS V14.01,2013-08-28 06:37:00,
2013-08-27 23:38:00,64.4,58.1,29.68,ESE,112,0.0,0.9,80,0.00,,,0.04,VWS V14.01,2013-08-28 06:38:00,
2013-08-27 23:40:00,64.4,58.5,29.68,ESE,112,0.0,0.9,81,0.00,,,0.04,VWS V14.01,2013-08-28 06:40:00,
2013-08-27 23:42:00,64.4,58.5,29.68,ESE,112,0.0,0.9,81,0.00,,,0.04,VWS V14.01,2013-08-28 06:42:00,
2013-08-27 23:43:00,64.4,58.5,29.68,ESE,112,0.0,0.9,81,0.00,,,0.04,VWS V14.01,2013-08-28 06:43:00,
2013-08-27 23:45:00,64.2,58.3,29.68,ESE,112,0.0,0.0,81,0.00,,,0.04,VWS V14.01,2013-08-28 06:45:00,
2013-08-27 23:47:00,64.2,58.3,29.68,ESE,112,0.0,0.0,81,0.00,,,0.04,VWS V14.01,2013-08-28 06:47:00,
2013-08-27 23:48:00,64.2,58.3,29.68,ESE,112,0.0,0.0,81,0.00,,,0.04,VWS V14.01,2013-08-28 06:48:00,
2013-08-27 23:50:00,64.2,58.3,29.68,ESE,112,0.0,0.0,81,0.00,,,0.04,VWS V14.01,2013-08-28 06:50:00,
2013-08-27 23:51:00,64.2,58.3,29.68,ESE,112,0.0,0.0,81,0.00,,,0.04,VWS V14.01,2013-08-28 06:51:00,
2013-08-27 23:52:00,64.2,58.3,29.68,ESE,112,0.0,0.0,81,0.00,,,0.04,VWS V14.01,2013-08-28 06:52:00,
2013-08-27 23:53:00,64.2,58.3,29.68,ESE,112,0.0,0.0,81,0.00,,,0.04,VWS V14.01,2013-08-28 06:53:00,
2013-08-27 23:55:00,64.2,58.6,29.68,ESE,112,0.0,0.0,82,0.00,,,0.04,VWS V14.01,2013-08-28 06:55:00,
2013-08-27 23:56:00,64.2,58.6,29.68,ESE,112,0.0,0.0,82,0.00,,,0.04,VWS V14.01,2013-08-28 06:56:00,
2013-08-27 23:57:00,64.2,58.6,29.68,ESE,112,0.0,0.0,82,0.00,,,0.04,VWS V14.01,2013-08-28 06:57:00,
2013-08-27 23:58:00,64.2,58.6,29.68,ESE,112,0.0,0.0,82,0.00,,,0.04,VWS V14.01,2013-08-28 06:58:00,